GFSFLT2_500_spd_027.txt.gz
Wind_Speed
28 26 30 37 48 34 34 29 23 31 28 26 32 24 18 20 16 7 6 10 10 9 14 19 21 23 21 18 18 20 22 23
30 28 30 32 32 46 40 41 28 38 39 25 26 13 11 9 6 6 7 5 9 12 17 20 18 15 15 18 20 22 24 26
26 39 31 41 42 43 51 45 36 37 36 27 26 13 13 9 8 6 7 10 10 14 13 8 11 15 19 23 26 26 28 29
29 30 30 35 34 40 40 44 37 38 26 20 15 14 13 12 12 13 13 13 13 7 7 10 14 18 22 23 26 28 29 31
23 23 20 13 22 34 22 25 32 30 16 14 14 14 11 9 9 13 14 10 7 6 11 14 17 20 24 26 28 30 32 34
17 12 12 8 6 26 13 16 13 24 21 17 13 12 11 13 16 12 8 7 7 12 15 19 22 25 28 30 32 35 37 38
14 17 15 15 16 16 22 23 21 17 12 12 11 11 12 13 10 9 7 9 12 16 20 24 27 31 34 36 37 39 41 41
23 23 25 23 18 15 14 12 10 9 9 10 9 11 12 10 8 9 10 13 17 21 25 29 33 35 38 40 41 42 42 42
15 14 15 12 10 9 10 11 13 15 14 16 14 14 13 10 8 11 15 18 22 26 30 33 37 39 41 43 43 42 41 40
13 11 11 10 8 9 11 12 15 16 16 13 15 16 10 8 11 15 19 22 26 30 34 37 40 42 43 43 43 42 40 38
11 8 7 7 8 11 12 13 15 17 17 14 13 11 10 12 16 20 24 26 29 33 37 41 43 43 44 44 43 40 40 42
9 10 10 10 10 11 12 12 15 15 13 12 11 12 14 16 21 24 27 29 33 38 42 44 44 44 44 43 41 42 44 45
12 12 11 10 10 11 13 12 13 13 10 10 13 16 18 21 25 28 30 34 38 42 46 46 45 41 43 46 47 46 48 49
12 14 12 10 10 14 14 14 13 12 14 15 17 21 23 27 30 31 34 37 41 43 45 46 45 46 48 51 51 52 54 51
7 9 10 10 10 11 15 15 15 14 16 18 21 25 29 31 32 35 38 42 42 46 49 49 48 52 55 56 56 56 56 55
8 11 14 14 16 16 17 16 16 18 19 23 26 30 31 33 36 37 41 44 47 49 49 50 50 56 57 55 56 57 58 58
11 11 16 17 17 18 19 20 21 23 22 26 29 32 35 38 39 41 44 47 52 48 51 56 59 63 61 60 59 59 60 62
17 16 17 17 16 18 20 24 24 24 25 27 30 32 35 38 39 42 49 52 53 52 56 55 60 65 61 60 60 61 64 68
21 20 18 18 17 22 25 29 24 25 25 30 31 35 34 37 38 46 50 52 56 58 63 62 65 66 63 61 61 64 68 74
25 21 19 19 20 22 22 24 28 28 29 30 33 35 36 36 44 52 56 57 52 56 66 65 67 65 64 65 67 70 74 80

GFSFLT2_500_spd_033.txt.gz
Wind_Speed
24 26 24 23 24 21 23 28 28 31 26 21 20 23 27 24 22 20 18 14 9 7 9 8 9 12 14 17 14 14 17 19
20 24 26 28 28 31 30 32 34 31 27 22 28 30 32 29 26 18 13 12 10 9 9 10 12 14 14 12 13 16 19 21
23 24 25 24 25 31 33 39 35 52 33 28 27 38 29 29 23 15 14 12 10 8 8 9 11 12 11 13 16 19 22 25
23 25 27 29 26 35 41 39 30 30 25 30 35 35 38 27 19 16 13 12 10 8 8 9 11 11 13 16 20 23 26 28
27 28 25 21 28 26 37 34 29 30 36 39 45 37 30 24 16 14 12 10 9 8 12 11 11 13 16 20 24 27 30 33
29 32 31 30 23 24 29 38 38 41 21 35 39 29 23 17 18 12 11 10 10 11 11 12 14 17 21 25 28 31 32 31
26 25 29 30 28 37 34 37 30 21 30 26 29 23 17 16 13 12 10 10 12 12 12 13 16 20 24 27 30 33 35 34
22 24 26 28 30 31 31 25 18 19 24 27 21 19 16 14 13 14 13 13 12 13 13 17 20 23 27 30 35 38 39 39
31 31 26 24 17 14 11 12 14 20 21 19 17 16 13 11 10 12 12 13 14 14 17 21 25 28 31 35 38 40 39 41
15 15 15 15 13 14 14 15 16 14 14 12 12 10 8 12 13 13 13 15 16 17 22 25 28 29 32 36 39 37 40 42
11 11 12 10 8 9 8 6 6 8 10 10 10 9 10 12 13 14 15 16 19 22 26 29 30 31 34 37 39 40 41 40
8 7 7 5 3 3 4 4 5 8 10 12 9 9 13 16 15 17 17 20 23 26 30 33 32 32 36 39 40 41 43 43
5 4 4 5 6 7 8 10 11 13 15 15 12 13 15 16 17 18 22 25 28 31 36 35 30 33 39 44 48 46 41 43
5 4 3 5 6 7 9 11 13 15 15 14 17 18 17 17 18 23 26 31 35 37 39 38 36 36 39 45 52 54 54 52
5 5 5 6 8 9 9 11 12 14 16 17 18 18 19 20 22 27 28 33 37 38 37 37 39 39 45 52 56 56 58 64
8 8 9 9 9 11 11 12 14 17 18 20 20 23 25 25 27 30 31 34 34 34 37 39 43 46 47 54 62 56 55 58
13 13 13 13 13 14 15 15 17 18 22 24 25 28 29 32 32 32 33 36 38 38 39 41 43 44 54 60 60 55 56 64
18 18 19 18 18 17 18 18 17 16 18 22 28 32 35 38 36 33 36 41 41 47 38 42 49 45 53 56 55 54 73 76
22 23 22 22 22 24 22 20 19 19 23 23 29 29 32 35 39 38 41 35 40 40 44 48 45 55 50 52 55 69 75 78
23 24 26 27 21 29 27 23 22 24 27 29 33 36 40 35 37 33 34 38 41 44 49 49 48 51 51 55 68 77 74 72

GFSFLT2_500_spd_036.txt.gz
Wind_Speed
34 24 16 13 16 21 20 22 24 23 30 26 30 30 27 23 20 19 13 11 11 12 11 9 6 5 7 10 12 10 12 11
28 20 18 19 22 22 25 25 25 26 33 30 30 31 31 28 23 22 20 14 12 11 9 7 6 5 8 10 9 11 14 19
10 11 19 21 21 23 22 35 35 32 32 31 33 26 24 27 29 27 21 16 13 10 8 6 4 6 8 8 10 14 17 19
14 13 16 16 22 25 21 29 30 38 36 41 35 37 28 34 31 29 20 17 14 9 6 5 4 6 7 9 13 17 19 20
22 17 19 21 18 24 27 32 32 39 19 23 23 28 36 36 30 25 20 16 12 8 8 6 7 7 10 13 16 18 21 23
25 27 28 26 19 23 27 30 25 25 30 26 34 41 37 33 26 23 22 14 11 11 9 8 9 10 13 15 18 21 26 30
26 24 23 21 19 24 27 24 28 32 28 26 28 26 22 22 26 18 15 13 11 10 11 10 10 12 15 18 22 27 27 29
25 23 21 17 20 26 27 24 26 21 25 24 16 16 19 22 17 14 13 11 11 12 11 11 12 15 18 21 24 28 30 28
20 19 20 26 26 31 27 23 28 26 13 8 16 21 21 13 11 11 10 11 12 11 12 14 17 18 20 22 27 29 30 33
20 21 25 20 14 10 11 5 8 12 13 18 19 15 12 10 10 10 11 12 11 12 14 18 20 22 23 25 27 29 31 33
17 13 12 14 12 12 13 13 13 15 16 13 10 9 8 7 10 12 12 12 13 15 18 22 24 25 27 24 28 33 36 38
10 7 6 8 7 9 9 7 9 10 11 9 7 7 7 10 13 14 12 14 16 20 23 26 28 33 33 27 30 33 40 43
3 3 2 2 5 5 5 4 2 1 1 4 9 11 10 10 12 13 16 19 21 25 28 32 35 36 37 35 37 37 40 46
2 3 4 2 2 4 5 4 5 6 6 11 13 10 13 12 15 19 20 21 24 28 31 35 38 38 40 37 41 42 46 49
1 2 4 5 5 5 5 5 6 7 7 10 13 15 15 18 21 21 23 27 29 31 34 35 34 36 37 38 42 47 49 51
5 7 7 8 10 10 9 8 9 10 10 12 13 15 17 20 25 26 30 32 37 35 36 36 36 41 36 41 44 49 52 58
9 10 11 11 12 13 12 12 12 13 14 16 16 19 21 25 26 30 38 40 39 42 42 32 38 42 47 52 47 51 51 58
13 14 15 14 14 14 14 15 13 12 13 15 16 18 24 27 25 32 34 39 38 44 42 35 41 44 45 50 57 53 55 66
12 13 14 15 15 16 21 15 18 16 16 16 18 22 24 28 32 35 40 39 35 33 33 38 40 43 43 55 50 52 62 64
13 14 16 17 17 18 17 19 27 24 19 20 27 20 26 31 35 35 31 29 30 34 38 41 44 47 43 46 52 59 62 71

GFSFLT2_500_spd_039.txt.gz
Wind_Speed
38 38 49 42 34 32 31 19 20 25 27 24 22 26 24 27 25 21 19 13 13 13 12 12 11 8 4 2 1 2 6 7
28 38 31 33 22 24 16 16 20 23 24 29 25 23 22 24 27 21 20 18 17 15 12 11 9 6 4 1 3 0 4 9
2 36 27 22 22 23 28 23 20 24 24 25 27 25 27 32 22 21 24 24 22 15 13 11 9 8 4 3 3 5 9 11
11 9 14 17 33 26 17 23 22 25 19 23 34 36 29 30 31 26 27 25 25 21 14 12 10 7 6 5 5 7 10 11
5 8 11 4 11 14 20 18 17 18 24 27 13 22 21 23 23 31 24 20 20 17 15 14 10 9 8 5 8 10 9 12
12 15 10 13 16 19 14 20 15 19 27 17 24 15 16 20 29 24 19 20 21 17 16 13 10 7 8 9 9 10 12 15
16 17 16 16 14 14 18 19 20 22 22 20 19 16 17 18 17 19 22 24 19 16 15 13 10 10 10 11 11 12 15 18
19 18 19 17 16 18 21 22 25 24 20 19 17 18 10 12 11 17 24 18 16 16 15 12 10 10 13 13 13 14 15 18
17 13 16 15 14 17 19 23 21 27 21 19 12 12 14 13 21 20 14 14 16 15 13 12 12 12 15 14 17 20 17 18
12 11 15 15 15 13 20 24 22 17 22 15 11 13 22 19 15 11 13 15 15 14 14 13 14 16 18 19 19 22 25 26
10 10 6 5 8 8 12 19 14 13 15 19 22 20 18 16 11 14 16 17 16 16 16 16 19 19 21 24 25 25 29 33
14 15 14 13 14 12 14 16 14 10 14 13 14 15 13 10 13 16 16 16 18 18 19 18 22 24 27 27 29 30 32 32
8 8 8 7 11 10 9 12 9 9 11 11 12 12 11 12 14 17 18 20 20 19 21 23 26 26 28 29 25 28 30 32
6 7 8 9 5 6 7 8 5 2 3 3 6 7 7 8 12 18 20 20 20 23 26 28 30 30 30 29 32 32 30 39
8 10 10 9 8 7 6 3 2 1 4 4 7 6 8 10 12 16 19 20 24 26 30 33 37 37 34 30 31 32 36 41
4 5 5 3 3 4 4 4 3 4 6 6 7 7 8 11 14 15 19 24 30 34 37 39 40 42 42 43 41 40 40 42
3 1 2 2 3 3 3 4 5 7 10 11 11 10 12 14 16 19 20 22 29 31 34 41 35 38 36 35 40 43 42 43
6 6 6 7 7 7 7 9 8 9 10 13 16 14 12 14 13 15 17 23 27 29 28 28 28 32 33 40 43 47 48 48
10 10 11 8 9 10 11 13 12 12 14 14 17 22 17 21 18 18 20 20 25 26 26 28 33 37 39 41 44 47 50 50
14 14 13 13 11 12 15 16 16 17 17 19 23 30 25 23 17 21 24 24 27 31 32 34 37 40 40 43 45 46 49 52

GFSFLT2_500_spd_042.txt.gz
Wind_Speed
30 35 53 28 42 42 54 45 42 41 42 36 26 26 26 26 22 25 27 24 21 23 21 19 15 13 15 11 8 9 8 4
23 33 42 36 35 56 51 41 49 48 40 30 25 25 24 25 20 20 26 25 22 16 18 16 14 18 15 11 9 9 6 4
14 20 37 27 42 38 37 38 45 38 26 21 23 21 22 20 21 24 31 26 21 23 19 17 18 18 16 11 11 8 6 5
16 18 39 46 28 26 35 29 20 16 20 20 20 17 22 32 25 27 17 23 24 28 23 20 18 17 15 14 11 8 7 7
7 19 14 21 17 17 20 20 21 20 24 13 15 7 12 21 22 16 15 22 16 18 23 19 18 17 15 12 9 8 9 9
7 8 3 2 1 5 11 16 23 14 23 12 16 13 11 15 15 20 17 17 15 21 22 20 17 15 13 12 9 10 11 10
8 7 6 5 9 9 12 17 21 17 10 15 18 18 17 16 13 17 19 15 18 22 22 20 19 16 11 10 10 11 14 11
12 9 12 13 11 13 13 17 18 18 19 21 20 20 19 19 16 16 18 15 21 24 21 20 18 16 14 12 11 15 17 15
14 13 16 13 11 11 14 16 21 24 19 21 20 19 23 18 15 18 16 21 24 19 20 18 18 16 18 16 15 15 18 19
17 16 18 12 13 14 18 19 22 21 25 24 17 18 21 18 16 17 24 23 19 19 19 20 19 19 18 18 19 19 21 23
11 11 10 14 16 19 19 15 19 21 18 20 16 19 19 19 21 22 19 18 18 18 22 21 20 20 20 22 23 24 26 26
19 19 16 14 13 9 10 12 11 9 10 14 17 19 19 17 16 17 18 19 19 21 21 21 21 21 23 23 24 25 25 28
13 13 12 12 13 13 11 9 8 9 9 8 11 16 15 15 17 21 21 20 21 20 20 21 23 24 24 25 26 27 28 31
10 11 10 9 11 11 11 8 7 10 11 10 13 12 16 19 20 17 18 19 19 18 21 26 27 27 27 31 33 32 32 31
10 11 13 12 11 12 11 8 7 8 6 8 7 13 17 16 16 17 19 20 20 23 26 28 28 31 34 37 37 38 36 37
9 9 10 9 9 8 8 8 7 6 3 3 6 8 13 14 16 19 20 19 20 23 24 26 30 31 33 36 34 30 30 33
5 5 4 4 4 4 5 6 4 3 3 5 8 10 12 17 19 22 21 18 19 20 23 22 25 26 25 31 33 36 35 38
2 2 2 3 4 4 3 4 5 8 9 8 10 10 12 16 19 21 19 21 20 19 26 31 26 25 27 32 35 36 37 39
6 8 8 9 9 8 8 9 10 13 11 11 12 13 14 21 24 25 19 21 19 20 24 24 27 31 32 34 36 36 38 41
8 11 14 13 13 13 12 13 14 16 17 18 16 20 25 26 27 31 29 24 21 20 24 25 30 34 35 35 37 40 43 45

GFSFLT2_500_spd_045.txt.gz
Wind_Speed
34 35 38 29 26 37 40 35 45 45 39 35 32 30 29 28 27 24 22 23 21 23 22 24 26 23 20 16 16 15 14 12
21 24 29 30 34 39 39 43 40 44 38 34 31 30 30 30 29 25 26 18 21 23 21 28 27 24 16 18 19 18 15 12
21 23 24 26 28 31 40 47 36 32 36 35 32 28 31 29 25 21 21 18 21 18 20 24 24 20 17 20 19 16 14 13
16 22 22 23 27 26 41 37 38 40 34 31 30 30 31 24 27 27 21 21 20 16 20 24 24 19 22 21 17 16 16 13
10 13 15 17 30 31 37 31 32 31 34 34 28 30 26 28 26 25 25 23 19 19 18 22 24 21 23 23 19 16 15 14
6 10 10 16 25 25 18 25 30 21 21 23 21 21 23 18 17 17 19 19 21 17 18 22 26 27 26 21 18 16 13 15
8 9 13 17 16 16 16 19 26 26 22 25 23 22 26 22 17 17 24 22 20 19 21 27 27 26 22 16 15 16 15 17
11 8 7 9 11 7 12 15 19 28 22 24 27 23 24 25 19 20 24 21 19 18 22 29 27 27 20 18 15 15 16 17
14 12 14 15 15 17 17 19 16 25 28 29 24 20 26 23 22 23 26 21 18 22 27 28 25 23 19 19 14 17 20 19
16 16 16 17 20 18 16 25 21 23 28 26 25 25 24 26 26 28 26 18 21 26 27 26 23 21 22 18 19 18 21 24
19 20 19 20 25 20 21 22 20 22 23 25 26 30 25 23 27 24 20 20 26 23 24 24 24 24 21 19 20 21 24 27
12 19 22 23 26 23 23 24 20 21 23 25 29 23 24 24 21 16 20 22 21 21 23 25 24 21 21 21 22 23 26 28
12 13 13 19 19 18 17 16 14 10 11 15 12 15 19 20 18 18 19 20 22 24 26 23 23 24 23 24 25 28 29 30
10 8 10 12 13 15 15 15 15 14 12 11 14 16 18 18 18 19 19 21 23 24 26 28 25 25 26 28 29 31 33 35
7 8 8 11 13 12 11 8 10 11 11 9 14 14 17 19 18 15 19 23 24 28 29 26 28 29 30 31 32 33 32 31
7 8 6 7 8 11 13 14 14 12 12 13 15 16 16 19 19 20 25 24 29 30 27 26 29 30 29 31 33 35 32 31
6 5 6 6 5 6 9 10 12 12 10 10 10 12 11 16 18 21 25 26 29 26 27 28 31 30 28 29 30 30 30 31
5 6 7 8 7 8 10 11 11 12 11 11 9 10 9 14 17 22 24 28 28 28 26 29 30 35 35 34 33 32 33 34
6 7 9 10 8 7 8 8 9 9 13 13 9 10 15 17 20 21 27 32 31 33 33 34 27 31 33 34 35 36 36 36
10 9 9 9 9 11 12 13 13 12 13 17 17 15 17 21 22 24 30 30 33 34 34 35 29 32 36 35 35 35 35 37

GFSFLT2_500_spd_048.txt.gz
Wind_Speed
30 29 30 31 32 28 32 28 34 37 38 28 26 23 23 20 18 18 18 22 22 22 23 23 22 23 22 22 19 17 16 15
20 21 22 29 32 29 21 32 30 36 35 29 28 25 24 20 19 21 21 24 24 23 21 24 21 23 25 21 19 19 17 17
20 23 25 23 21 14 13 34 31 30 36 31 30 28 25 21 21 23 24 23 26 21 21 17 22 24 27 25 21 20 19 17
14 15 18 14 13 11 12 36 31 30 37 33 35 31 27 22 22 24 25 24 23 24 23 20 20 22 22 22 22 20 20 17
9 9 13 19 19 23 23 29 31 36 35 32 36 33 28 21 23 28 24 27 27 23 24 21 22 23 26 22 23 21 20 15
5 5 7 11 15 26 23 28 41 41 35 34 37 31 22 20 24 25 27 28 26 24 23 23 22 23 22 23 24 22 17 15
6 4 8 9 13 12 29 29 32 38 25 29 31 30 20 23 25 24 24 25 27 23 24 22 23 24 25 25 22 19 15 13
7 7 16 18 15 19 29 30 30 26 24 25 23 27 23 23 24 28 23 28 28 23 21 23 27 28 28 25 21 15 14 18
10 9 14 17 18 16 21 24 30 31 30 27 28 29 25 22 23 28 26 29 29 28 21 27 34 31 28 23 25 21 21 19
13 10 11 10 12 17 17 19 26 34 33 29 25 26 24 22 25 29 31 28 29 26 20 30 32 27 27 29 23 24 18 22
23 16 13 15 16 21 20 21 29 28 23 31 26 23 27 25 28 33 31 29 26 21 27 30 27 28 27 24 25 21 23 22
24 23 21 14 18 19 18 22 27 23 26 27 26 28 28 29 29 28 27 26 23 25 27 30 29 28 25 26 26 24 24 27
8 17 24 28 26 25 25 24 24 23 26 25 29 30 30 26 26 23 22 22 23 23 23 27 29 28 30 29 26 26 27 30
4 6 5 13 22 30 30 28 29 30 26 30 32 30 29 25 21 21 21 21 23 23 26 29 30 32 31 30 28 28 31 32
4 5 6 9 13 11 12 17 20 19 16 15 16 19 21 22 23 24 23 23 23 26 28 29 31 31 30 30 29 31 34 38
6 6 7 8 11 12 14 15 16 16 13 12 13 14 17 18 18 20 22 25 26 27 29 28 29 31 31 32 33 35 34 32
5 6 7 6 6 8 10 12 12 10 9 10 11 15 16 18 20 23 22 23 25 25 28 30 33 34 34 34 36 34 32 35
7 5 5 4 4 6 7 8 10 11 13 13 14 14 15 18 19 21 26 24 27 28 31 32 32 35 37 39 39 38 35 34
8 7 7 6 7 6 5 7 9 9 11 13 14 15 18 19 21 23 25 25 27 29 33 34 35 36 38 41 40 38 39 36
10 12 10 11 11 11 12 11 12 11 14 13 15 18 21 22 22 24 25 25 25 27 32 36 42 43 44 38 36 37 39 37

GFSFLT2_500_spd_051.txt.gz
Wind_Speed
29 33 31 25 27 25 29 31 20 23 36 41 37 31 26 24 18 14 15 15 14 15 15 15 15 18 20 20 20 21 18 17
26 36 18 18 25 25 28 25 28 27 31 46 38 33 25 24 18 17 15 15 16 18 17 19 20 18 17 20 22 19 17 17
29 22 13 17 21 22 28 26 23 27 35 44 38 27 27 24 18 17 16 16 17 19 21 17 18 17 19 20 20 22 19 17
24 24 21 25 26 30 30 25 26 31 38 41 37 29 30 25 19 17 17 17 22 21 20 19 22 20 22 23 25 24 18 19
16 18 18 20 25 28 27 27 35 39 34 44 40 30 31 26 20 22 21 21 19 25 22 23 25 21 19 21 22 20 20 20
9 7 7 15 24 26 22 19 37 40 33 38 38 29 37 27 25 23 22 23 23 25 28 28 24 20 22 26 26 25 22 22
7 7 7 13 17 29 24 22 37 37 33 34 43 37 38 31 25 25 20 19 21 26 28 28 24 22 25 31 27 22 23 21
10 6 10 1 18 20 25 34 27 35 36 32 42 33 34 34 26 26 22 20 23 25 26 27 23 24 24 26 27 24 25 21
13 7 15 14 13 23 26 28 31 36 33 30 24 29 34 28 27 25 23 22 24 25 27 27 24 26 28 30 23 25 22 20
14 13 11 8 10 15 24 25 25 33 34 24 26 28 31 32 28 23 21 24 29 28 26 29 29 29 29 29 28 26 24 23
13 12 7 14 8 9 11 19 30 28 33 28 26 28 31 31 28 22 23 28 30 29 28 30 30 32 35 30 29 27 27 28
17 20 12 9 9 13 17 14 17 29 29 28 27 27 27 28 28 28 29 28 31 30 30 30 32 32 32 29 31 35 30 28
9 18 16 20 11 11 10 13 15 20 27 26 25 23 24 27 29 29 28 30 29 28 28 31 33 31 32 37 36 30 29 29
1 4 16 21 17 20 18 16 18 19 27 23 26 27 27 28 30 28 27 28 27 27 27 29 33 31 31 33 29 27 31 32
4 2 1 9 18 23 23 23 24 24 28 26 27 32 28 30 32 26 26 24 24 25 26 29 29 29 33 30 31 33 34 36
2 2 2 2 6 8 9 9 11 20 23 20 21 24 24 25 21 20 23 20 21 24 27 29 27 28 29 33 37 37 38 38
2 2 3 4 6 7 8 9 11 14 14 13 15 14 14 15 17 19 19 19 22 25 28 29 29 31 32 36 36 37 39 41
8 7 6 7 8 10 9 9 11 13 16 17 17 16 17 19 21 21 21 23 25 28 31 31 28 32 32 33 37 40 39 40
8 8 8 7 8 9 9 10 11 11 11 13 13 15 17 20 20 22 25 28 31 31 32 31 31 33 33 36 39 40 42 40
10 10 11 12 13 12 12 12 12 12 10 11 13 14 16 19 20 23 25 28 29 30 28 27 28 32 32 33 41 46 47 45

GFSFLT2_500_spd_054.txt.gz
Wind_Speed
31 32 29 27 29 26 26 25 23 22 27 29 31 40 35 34 27 23 22 20 20 12 11 11 10 12 15 14 14 13 14 15
34 34 34 32 34 34 26 24 26 22 23 27 31 43 37 34 28 25 24 21 17 13 12 13 12 16 17 13 12 14 17 17
23 31 39 26 35 31 28 26 26 22 26 27 39 47 41 38 27 27 24 21 17 14 13 13 13 14 16 15 14 17 18 19
18 20 19 17 22 29 25 29 35 26 27 32 36 48 40 38 31 28 24 22 17 15 15 13 15 18 19 18 16 16 21 24
12 21 23 27 30 31 28 35 32 28 31 32 46 50 43 36 30 28 24 22 19 15 16 18 20 21 20 18 18 19 21 25
9 14 16 20 17 27 27 32 35 33 31 34 39 50 40 37 34 28 26 26 22 19 17 20 24 22 20 21 19 21 21 21
11 11 15 15 21 28 33 34 32 32 31 43 43 42 47 37 37 29 26 29 24 21 23 23 25 26 26 24 22 24 22 22
13 14 14 12 22 29 31 33 22 28 42 37 45 42 46 39 42 30 30 28 24 25 23 22 21 23 24 25 25 28 29 27
15 17 14 8 15 28 40 38 30 33 45 37 33 34 47 48 41 32 31 29 27 26 24 23 21 25 28 27 30 32 25 26
16 14 15 8 3 26 30 32 31 36 39 34 38 34 41 48 37 35 34 32 28 29 28 26 25 27 29 27 28 28 30 28
13 13 11 9 5 14 26 28 31 32 36 31 30 33 35 35 36 36 35 31 29 29 27 26 28 29 29 29 32 34 30 31
9 12 10 6 6 8 16 24 27 27 29 31 25 26 30 30 33 34 26 26 27 28 24 27 30 31 30 32 33 32 32 32
8 10 23 10 10 9 10 13 20 29 25 31 24 19 19 23 29 29 29 29 28 27 28 30 31 31 32 36 36 37 32 32
7 7 7 9 10 17 10 7 9 11 19 23 22 20 19 20 20 26 28 29 28 30 30 29 30 29 31 31 34 33 33 37
5 6 8 7 17 16 17 14 14 10 15 19 21 18 19 24 24 25 26 27 29 29 30 30 28 27 29 27 29 32 36 32
5 3 4 4 2 8 15 15 14 16 17 19 21 20 21 25 28 27 26 28 27 25 26 26 24 24 24 28 30 31 32 32
5 5 2 3 2 4 5 6 8 8 18 24 21 24 22 24 26 26 20 19 19 18 19 21 21 21 23 27 28 31 33 36
6 8 7 4 3 6 5 5 8 10 11 14 16 17 16 18 19 18 18 20 20 19 23 24 26 26 29 32 32 35 38 40
7 5 5 6 7 6 8 9 10 10 10 11 13 13 16 16 16 18 20 22 24 28 27 31 29 29 31 34 33 34 36 40
11 10 8 6 6 8 10 10 10 12 13 13 14 16 16 17 17 19 21 24 25 27 29 31 32 32 33 34 36 36 40 42

GFSFLT2_500_spd_057.txt.gz
Wind_Speed
28 29 30 32 30 28 24 31 29 24 26 27 31 41 46 37 35 31 31 27 27 23 19 16 15 13 12 10 12 14 14 13
21 25 30 31 32 33 22 36 23 24 22 26 21 24 29 37 34 33 32 31 27 23 19 18 15 14 12 11 12 10 10 12
15 20 26 31 32 33 33 33 24 21 19 22 24 25 26 38 35 36 34 29 26 23 21 17 16 16 12 11 13 11 12 13
14 17 16 24 33 34 31 30 32 24 23 24 24 29 33 45 41 38 32 28 27 23 21 19 19 17 16 15 14 13 13 12
12 9 15 24 23 30 32 24 31 29 29 23 28 29 37 44 41 40 30 28 26 25 23 21 21 18 16 16 17 14 15 16
13 6 16 25 26 26 36 36 31 34 32 30 32 36 37 53 42 40 34 31 28 27 24 23 21 18 19 18 19 18 20 20
16 10 9 23 25 23 29 35 32 41 32 31 32 30 34 46 38 39 38 33 30 29 25 25 22 19 19 19 22 22 24 24
17 16 13 15 23 25 34 31 32 29 32 35 35 37 37 46 42 40 39 33 32 30 30 27 22 19 18 19 21 22 26 25
17 19 16 18 20 24 30 29 30 27 33 37 37 41 45 50 45 44 41 35 33 31 30 26 20 19 17 20 21 25 26 27
21 19 18 16 16 15 30 38 36 29 33 37 35 38 37 53 48 44 42 39 35 30 29 25 23 21 22 22 25 26 28 32
15 8 19 13 14 12 23 35 32 33 39 35 38 39 37 42 48 49 43 43 34 31 28 27 24 24 24 25 27 29 32 32
12 6 15 6 10 13 14 28 33 28 31 35 39 31 25 39 35 48 47 40 35 31 29 26 25 25 25 27 29 30 33 32
8 10 8 19 15 9 4 25 27 25 26 27 30 32 34 31 32 42 43 38 32 28 26 26 26 28 27 29 29 32 34 36
8 7 10 9 10 6 8 7 16 22 26 29 24 20 15 18 20 31 36 32 27 27 27 26 26 27 28 30 31 33 32 35
8 7 7 9 7 10 9 8 5 5 17 17 22 21 16 15 14 18 22 24 25 24 25 26 28 27 27 26 26 27 31 31
5 5 5 5 4 1 8 16 8 10 7 12 11 15 17 17 20 19 22 21 22 21 24 25 25 23 22 19 20 24 21 24
5 5 5 4 4 3 3 4 6 9 10 15 15 18 21 17 19 24 24 22 20 21 17 18 18 19 15 17 17 20 22 25
7 5 5 5 4 3 2 3 3 5 5 5 15 18 18 18 18 20 20 16 17 15 15 16 15 14 15 20 21 22 24 25
7 6 4 2 2 3 4 6 6 5 5 5 7 9 10 11 11 11 13 15 17 19 17 18 19 20 24 24 27 29 32 31
10 6 6 5 3 4 5 6 6 7 8 9 10 11 12 12 11 12 14 16 17 20 22 22 25 30 29 30 32 33 33 35

GFSFLT2_500_spd_060.txt.gz
Wind_Speed
27 28 31 32 34 33 37 29 29 31 30 28 29 29 29 34 38 40 43 38 30 25 25 23 21 19 18 18 13 8 10 12
25 23 26 32 34 30 36 35 31 29 27 26 26 25 32 42 45 43 42 38 31 23 27 24 21 19 22 19 12 6 5 10
22 22 25 27 25 33 33 33 36 37 28 28 26 23 31 24 48 43 44 37 30 27 27 24 22 21 20 18 14 9 9 10
21 23 25 23 18 23 29 27 23 41 29 28 21 22 18 30 37 40 39 31 29 28 28 26 24 22 22 19 15 10 10 12
19 24 25 15 18 21 28 25 19 30 22 19 21 21 18 26 24 33 34 35 29 28 30 27 25 26 20 20 20 13 13 13
17 20 23 16 20 21 20 27 20 29 22 23 22 22 24 27 29 42 39 35 32 31 30 29 28 25 18 22 19 16 17 16
15 15 21 16 20 21 16 21 24 33 25 28 31 23 23 27 27 37 41 36 33 33 32 31 29 22 20 19 20 17 20 19
16 14 17 18 16 21 23 22 33 29 30 27 29 27 28 32 26 39 41 43 37 35 34 31 28 21 22 21 21 19 21 19
20 17 15 17 20 24 23 25 27 30 32 33 37 33 33 26 26 30 48 47 39 36 33 32 28 21 22 20 21 19 19 20
19 18 14 13 18 24 23 25 26 33 30 27 31 31 30 27 26 37 40 43 38 35 34 31 29 24 21 21 22 22 19 20
18 17 8 11 17 22 22 27 31 36 33 32 31 33 31 26 34 44 46 44 37 38 36 32 30 26 22 20 22 22 23 22
16 16 11 17 10 20 22 26 30 37 37 34 33 30 33 33 34 41 44 50 42 41 37 35 32 25 22 20 21 22 25 27
14 13 11 13 13 13 13 15 20 35 35 33 29 29 33 31 22 27 35 42 50 43 42 38 30 25 21 22 24 28 27 27
13 11 10 12 10 7 5 9 13 27 31 29 27 28 27 23 29 30 39 35 39 47 39 32 26 23 23 23 26 26 24 28
11 9 8 10 12 4 4 4 3 6 18 23 21 21 21 20 16 19 25 28 35 34 30 25 22 21 23 24 26 22 22 21
8 7 6 7 9 9 5 8 5 3 3 17 20 21 21 16 13 12 10 12 20 23 25 23 22 23 24 22 20 15 11 15
5 5 5 5 5 4 5 8 10 7 7 6 7 9 14 15 13 14 10 10 13 21 22 23 22 19 16 14 12 10 11 15
6 4 5 4 3 4 3 5 2 3 2 4 5 13 11 15 15 12 15 16 17 20 22 20 14 11 10 12 12 12 16 15
9 6 2 2 3 4 4 4 2 2 1 3 2 2 1 2 5 8 10 12 15 19 19 16 16 11 12 14 18 18 22 21
11 8 5 2 2 3 5 5 5 3 3 3 5 6 9 9 11 13 14 13 12 12 15 16 16 17 18 20 24 24 27 28

GFSFLT2_500_spd_063.txt.gz
Wind_Speed
21 22 24 26 27 30 33 33 35 31 43 31 30 39 23 36 36 40 42 48 45 44 41 40 33 23 26 19 16 17 17 16
22 22 22 24 26 31 30 33 37 27 28 36 28 27 36 31 34 41 49 45 41 40 38 34 23 25 21 17 17 16 15 15
21 21 19 19 24 27 32 32 37 36 39 31 34 34 29 30 25 38 36 38 40 38 34 28 27 25 21 19 16 20 16 13
22 21 18 20 23 31 27 31 30 33 29 42 34 37 29 17 25 23 35 37 39 40 35 27 24 24 21 14 21 20 17 15
21 20 19 19 22 21 17 21 24 23 26 43 23 18 26 23 25 25 33 41 40 40 34 28 26 25 21 16 20 20 16 16
19 18 19 17 15 17 16 16 21 19 38 36 25 21 22 23 20 21 34 43 40 34 28 27 28 23 24 18 20 22 19 17
18 20 19 18 15 15 15 13 16 8 31 29 23 19 19 23 19 20 26 37 35 32 31 29 27 27 25 16 24 20 19 17
18 22 23 16 13 14 9 11 8 16 29 27 23 25 26 24 23 21 27 30 35 35 37 32 29 30 24 20 20 21 19 16
20 21 24 17 11 12 9 18 15 15 34 33 26 29 24 25 20 22 23 30 34 39 39 32 30 31 24 21 20 20 17 14
18 20 21 14 6 11 13 15 15 14 27 26 30 25 29 28 22 23 24 27 36 41 43 37 33 32 27 23 20 22 18 16
14 18 19 12 17 10 12 14 15 20 23 28 32 31 31 31 29 31 28 29 34 46 45 31 34 33 27 25 20 20 19 17
12 15 15 15 12 11 8 15 18 24 24 26 31 27 22 26 30 27 28 29 29 43 42 37 38 36 28 26 22 19 19 19
10 12 12 14 12 13 5 12 14 22 29 31 33 29 27 28 33 31 26 26 37 41 40 42 39 38 31 28 24 24 21 21
8 9 10 12 11 9 5 11 9 12 15 29 33 29 30 27 27 27 25 22 27 38 42 39 45 42 37 30 27 22 24 25
7 7 8 8 10 6 4 9 6 8 9 20 27 28 29 28 25 21 20 24 27 35 37 29 36 42 32 27 23 23 27 27
6 5 7 6 7 9 9 4 4 2 7 19 26 22 22 21 20 20 20 26 29 32 35 17 27 25 24 23 26 27 26 25
5 3 5 5 3 5 6 8 9 2 5 4 20 27 26 24 22 17 16 15 15 20 19 21 22 24 24 25 25 21 21 21
5 6 5 5 2 1 3 4 6 8 8 3 5 7 15 19 17 18 20 14 13 14 19 22 18 22 22 18 15 15 16 16
8 7 8 4 2 1 3 3 3 3 3 3 3 9 14 15 18 20 16 14 16 19 20 19 16 17 17 17 16 18 19 18
12 8 9 9 6 4 2 1 2 1 0 3 3 3 3 5 6 10 13 14 14 14 15 16 18 18 20 22 21 20 21 24

GFSFLT2_500_spd_066.txt.gz
Wind_Speed
26 23 23 22 22 21 25 38 38 34 27 36 42 34 33 31 26 29 33 35 38 38 37 37 36 34 29 28 24 16 19 17
27 22 22 20 19 19 24 23 27 32 27 31 39 31 28 34 31 29 32 36 38 42 40 40 38 37 30 30 19 19 20 18
24 21 20 19 19 17 22 26 28 26 34 36 34 26 27 27 22 33 34 38 42 42 43 42 41 34 35 20 19 22 19 17
17 17 17 18 19 19 22 24 26 26 30 33 26 39 30 37 30 28 34 39 43 45 44 39 36 33 20 23 23 20 19 17
17 16 16 16 19 20 18 20 24 28 28 28 34 29 32 28 29 28 18 33 37 38 35 34 30 29 20 23 20 19 18 15
17 17 16 16 19 18 14 16 18 23 24 25 27 43 31 30 31 22 20 25 25 30 34 34 33 27 22 27 20 17 17 17
16 16 18 20 17 18 14 16 16 22 28 27 31 36 28 25 29 27 25 28 25 32 34 33 33 24 23 27 21 17 15 18
16 17 19 20 14 16 13 15 15 15 18 28 43 28 27 22 27 23 21 28 28 32 37 32 30 25 25 27 21 17 18 18
17 15 17 18 5 9 9 14 14 11 4 38 36 29 23 19 25 20 18 19 24 30 35 32 33 30 25 29 24 21 17 18
17 14 16 13 8 9 10 11 16 9 11 27 33 22 23 23 24 20 21 20 25 30 29 33 33 33 28 29 27 21 20 20
14 12 14 12 13 10 12 14 14 13 16 30 33 27 24 26 25 23 25 25 24 28 30 31 39 38 34 28 30 24 22 21
12 12 14 14 9 10 9 13 16 17 19 24 32 27 28 27 31 29 32 27 27 25 28 32 42 42 37 31 30 26 24 24
9 10 12 13 11 10 8 12 12 15 20 25 28 31 32 32 27 26 30 25 25 27 28 32 36 42 31 30 32 31 28 27
8 7 10 12 11 11 8 7 12 18 23 27 32 32 36 34 28 25 29 29 27 27 27 33 29 41 40 36 35 35 33 31
8 6 7 10 10 10 3 7 6 6 11 18 26 31 36 34 29 26 26 30 27 29 24 28 38 41 41 39 40 39 36 33
8 6 5 7 8 7 8 9 5 6 7 10 23 25 27 29 30 28 27 27 27 25 28 27 27 37 35 26 34 36 31 31
9 7 5 6 6 5 4 4 8 6 4 5 20 28 29 32 32 29 29 28 25 24 28 27 28 27 19 24 26 28 31 33
10 9 8 7 5 5 4 4 3 5 7 4 8 23 30 24 24 23 25 22 23 25 33 27 19 23 24 24 25 31 32 32
13 12 11 9 6 5 3 2 2 0 1 4 6 10 8 13 20 21 19 21 20 19 19 24 26 24 25 25 26 26 26 23
15 14 13 12 10 8 6 3 2 3 2 2 2 6 6 10 16 18 18 22 21 18 21 22 25 27 28 24 21 23 24 27

GFSFLT2_500_spd_069.txt.gz
Wind_Speed
23 26 31 28 28 27 26 31 34 46 32 28 34 40 30 24 23 24 30 34 35 31 30 26 27 32 27 31 30 27 22 14
26 28 27 26 26 26 26 28 28 44 30 34 16 36 25 32 26 23 25 27 36 33 30 26 28 31 36 34 34 29 20 13
27 23 22 22 23 24 22 23 23 23 27 28 27 24 42 37 29 23 27 24 27 31 29 29 32 35 38 36 32 27 14 18
21 16 18 18 19 22 20 23 23 26 27 30 33 24 35 34 23 22 27 24 28 25 30 33 39 39 41 37 35 21 18 17
16 14 17 19 18 20 21 22 26 27 27 27 26 27 39 31 27 25 22 24 30 28 24 40 37 40 38 36 25 18 17 17
13 16 16 16 20 21 22 22 24 23 26 32 30 26 28 30 35 29 27 21 33 37 28 31 38 37 32 27 20 18 15 17
12 16 15 16 21 23 22 21 21 22 24 28 30 31 32 35 32 30 23 28 25 18 24 26 29 32 32 29 22 19 18 15
14 16 17 17 20 23 23 21 21 24 21 25 30 30 30 31 35 30 27 31 25 18 20 28 29 30 31 28 24 22 19 16
18 18 18 16 18 11 16 18 17 24 23 27 33 28 32 33 30 29 25 25 27 25 24 27 27 27 27 31 27 23 21 19
17 19 15 16 14 16 21 18 15 16 17 22 31 32 31 29 27 26 25 21 22 25 24 25 29 32 29 31 28 25 22 22
14 14 14 15 13 14 18 17 18 18 7 19 25 34 27 22 24 22 21 22 17 17 21 23 30 35 34 33 31 31 27 25
12 13 14 14 12 13 18 12 17 20 18 28 35 30 28 24 22 29 24 21 22 20 21 26 30 34 34 35 34 33 31 29
11 12 12 11 9 12 16 12 14 19 24 36 34 35 31 26 29 30 28 22 25 24 24 26 27 30 32 32 35 36 34 31
10 11 11 7 8 11 12 8 13 15 20 27 39 41 40 33 31 29 29 30 33 31 28 29 30 28 30 32 36 39 34 34
11 11 11 7 7 7 2 9 14 15 20 26 31 35 41 41 35 39 30 32 30 29 27 26 27 27 29 31 31 42 41 38
13 11 10 7 6 5 5 7 9 13 16 23 28 35 40 37 34 39 35 31 30 31 32 28 28 27 24 25 31 35 45 31
13 11 10 7 8 5 5 5 4 5 12 12 17 22 26 40 34 33 35 31 30 32 31 28 28 29 25 26 20 28 31 29
12 11 10 10 9 8 3 5 5 4 3 10 13 23 22 31 32 33 33 33 32 33 26 31 30 30 28 28 28 30 29 30
14 13 12 11 9 10 7 2 4 4 3 2 8 19 25 27 28 32 31 32 35 29 30 29 26 30 31 26 29 34 31 28
13 15 14 14 12 11 11 7 3 5 8 4 1 7 14 21 28 29 27 26 26 27 30 27 35 30 38 24 28 28 29 30

GFSFLT2_500_spd_072.txt.gz
Wind_Speed
27 28 29 30 33 37 31 28 28 30 36 34 37 36 33 31 25 22 22 23 26 25 25 27 26 27 24 21 25 25 25 27
28 31 30 31 33 32 27 25 28 29 25 26 45 39 27 24 30 21 20 20 24 30 27 28 26 25 26 23 30 27 27 28
28 29 25 25 22 25 24 24 26 27 25 27 33 38 24 18 21 29 27 19 20 27 31 28 28 25 23 26 26 28 34 32
22 20 17 18 19 21 22 22 24 25 26 24 24 26 34 24 26 22 22 20 19 20 32 29 25 26 27 26 30 34 35 28
21 17 15 17 18 21 20 21 23 25 28 26 29 26 29 30 31 32 27 19 20 18 22 26 28 29 29 32 34 35 31 18
18 17 16 16 17 20 21 22 23 27 28 27 28 25 22 28 26 31 35 22 17 20 23 22 34 32 35 37 40 27 23 18
15 17 16 16 17 20 23 25 26 25 23 23 28 31 25 23 23 41 39 26 17 20 25 26 27 25 33 27 26 26 21 19
15 18 15 16 17 21 25 20 19 24 25 24 26 30 33 31 25 35 39 28 26 20 24 29 29 25 23 25 28 28 24 20
17 17 16 16 17 20 23 21 24 23 24 24 26 28 32 34 36 36 38 29 18 23 22 25 24 24 22 21 28 29 26 24
16 17 15 15 17 20 22 24 24 23 20 23 27 27 31 28 32 35 35 30 19 29 27 24 23 23 25 26 26 30 29 26
13 12 11 12 17 19 22 22 21 23 22 18 23 27 30 28 37 36 31 24 22 21 30 27 27 28 28 28 25 32 32 28
11 9 11 12 15 17 18 21 19 20 24 22 18 29 33 30 40 35 29 23 20 19 19 21 28 29 27 28 28 33 32 31
9 9 10 11 13 13 15 21 15 14 19 19 18 34 28 35 32 31 27 25 24 24 21 22 24 23 24 25 29 32 33 33
9 9 10 11 11 11 14 13 8 10 15 17 19 33 37 36 31 28 27 29 22 24 26 21 23 25 27 31 34 30 31 35
8 10 10 10 9 8 8 7 8 10 10 16 20 29 30 33 32 30 27 27 32 27 26 24 26 27 27 30 30 29 34 35
9 11 11 10 7 8 5 5 7 8 12 13 21 25 33 35 34 31 28 28 28 27 28 31 29 26 26 26 28 26 28 29
11 12 11 11 8 7 6 5 4 5 9 12 14 25 33 35 40 36 35 33 36 33 30 29 30 28 27 26 26 22 25 24
12 13 12 12 10 7 6 5 4 4 6 6 12 17 29 36 39 37 37 34 38 35 33 33 34 31 30 27 27 20 19 21
12 16 15 15 12 10 8 6 4 3 2 4 6 12 18 20 24 39 38 33 32 36 35 34 35 31 28 28 24 22 20 23
11 19 17 17 15 12 10 9 7 5 3 3 4 6 8 21 20 26 38 33 33 32 35 37 38 32 33 31 23 23 28 23

GFSFLT2_500_spd_078.txt.gz
Wind_Speed
30 36 40 38 34 34 28 29 26 27 25 26 25 23 28 28 25 27 21 18 19 25 30 30 30 28 30 28 25 22 22 23
34 35 34 36 35 34 28 28 27 25 20 21 23 22 16 38 33 19 12 16 20 26 31 33 34 32 31 29 28 25 28 27
36 37 30 34 34 32 30 27 27 21 18 21 22 21 20 30 28 23 31 24 20 26 31 35 35 35 33 29 30 26 22 27
37 33 30 32 32 31 28 26 23 19 19 19 21 20 21 26 22 27 29 28 30 24 26 29 32 36 33 32 24 25 25 24
30 30 30 32 31 29 27 24 24 19 19 20 21 22 23 24 26 32 35 25 31 32 21 23 29 34 35 31 30 28 28 28
29 27 32 32 31 28 27 24 26 20 20 22 23 23 23 26 26 25 32 29 30 32 24 21 26 32 34 33 31 32 30 31
32 32 32 32 31 29 27 29 26 22 22 25 25 22 23 26 26 26 33 23 25 33 25 22 20 33 32 33 34 33 31 30
31 33 32 32 31 30 28 31 27 23 23 25 21 17 22 24 24 26 27 29 27 32 26 20 19 28 34 32 33 35 34 32
27 32 33 32 31 30 30 31 27 25 24 23 23 22 22 26 25 29 29 31 30 34 27 21 21 23 30 33 33 36 36 34
29 35 31 31 31 29 30 31 27 24 23 23 24 24 24 27 27 30 27 33 39 41 33 23 25 26 29 32 33 39 32 28
32 33 28 28 31 25 28 27 22 21 22 24 23 24 23 24 24 28 29 30 38 44 38 30 27 27 31 36 37 33 33 32
31 29 25 27 25 22 23 20 20 21 23 25 26 26 24 24 30 29 32 30 41 47 43 35 34 30 33 34 33 34 33 32
29 25 22 29 21 22 20 18 18 20 24 27 24 25 19 27 23 28 27 33 37 44 42 40 33 28 29 23 24 26 26 25
26 23 22 25 22 20 16 15 16 15 17 18 16 19 24 26 30 26 27 33 35 40 39 38 30 28 30 26 24 24 25 25
25 21 23 23 23 17 14 13 12 13 15 13 8 14 22 27 32 29 30 32 32 37 37 23 24 22 20 19 22 24 29 28
25 20 23 23 23 15 12 11 10 7 9 13 9 9 15 20 30 32 32 31 30 32 23 25 21 19 20 18 19 23 28 29
27 20 24 25 22 15 12 10 8 5 7 6 9 6 10 22 27 29 31 32 33 32 25 24 24 23 21 22 22 24 29 30
23 22 25 26 20 16 12 10 7 2 3 4 4 4 9 10 19 27 31 29 28 26 28 28 30 28 25 23 26 30 29 31
23 24 26 25 21 16 13 9 6 1 1 3 6 4 5 11 19 20 24 26 30 31 30 31 27 27 27 27 26 27 31 31
23 24 25 23 21 16 14 11 8 4 2 2 8 6 5 7 12 18 20 24 26 30 32 35 28 25 22 26 29 30 32 32

GFSFLT2_500_spd_081.txt.gz
Wind_Speed
22 23 27 29 33 36 35 32 32 34 33 31 27 28 23 31 34 39 36 33 26 25 24 30 33 32 31 31 31 29 26 22
23 27 30 30 33 35 34 34 31 33 33 31 24 22 23 23 24 41 29 28 22 23 22 29 34 32 31 31 31 30 28 28
22 26 30 33 32 33 33 32 33 32 32 28 24 22 22 23 22 26 28 29 25 21 19 27 33 35 33 33 34 33 30 29
24 28 30 29 30 32 29 30 32 30 27 24 23 23 19 20 21 21 31 26 25 26 23 25 31 35 37 35 37 34 33 28
27 28 28 27 32 28 27 30 31 27 26 24 22 22 20 23 20 22 22 28 23 33 27 24 26 32 36 39 37 35 36 29
28 29 28 28 31 29 27 31 31 26 27 25 23 22 22 23 21 24 22 27 26 29 37 24 25 25 34 40 38 38 32 30
31 32 30 31 33 32 29 33 31 27 28 25 26 23 25 25 23 23 26 24 23 27 34 32 28 26 31 35 41 38 33 31
34 32 28 31 31 31 30 34 31 30 31 28 26 27 26 22 22 24 23 23 31 28 28 35 31 29 29 36 37 36 34 36
32 28 27 28 28 30 32 34 32 32 31 29 28 28 27 26 23 22 23 23 27 28 30 36 31 27 27 34 35 36 36 34
29 27 27 28 30 28 33 35 32 32 31 30 29 27 27 28 28 24 23 24 29 30 31 35 29 24 22 29 34 33 33 34
29 27 27 29 29 28 33 34 31 27 28 30 29 29 28 27 28 24 25 28 29 33 35 35 31 20 21 23 29 29 28 28
29 27 26 28 27 28 31 28 22 21 24 26 28 29 28 29 27 25 27 30 24 38 36 39 37 23 22 23 26 29 32 30
28 27 26 27 26 27 26 21 19 20 22 25 27 30 31 31 28 27 31 31 33 31 39 39 39 32 26 25 25 28 31 34
26 26 27 26 27 24 22 20 18 19 20 22 25 27 29 31 31 32 35 31 31 29 35 40 43 37 29 28 24 24 24 24
26 26 29 25 23 21 19 18 15 18 17 21 24 25 24 26 28 24 30 27 26 26 29 37 41 40 35 30 23 23 24 22
27 29 28 24 20 21 19 15 15 14 16 15 17 21 21 25 28 29 25 26 32 29 30 35 37 36 27 21 24 25 25 26
29 30 26 23 20 21 20 14 14 13 14 14 14 20 18 20 27 33 32 33 29 31 32 36 39 31 19 20 20 22 21 22
32 31 26 21 20 22 18 14 12 11 11 11 9 14 13 13 18 28 32 30 32 29 27 33 27 24 25 21 20 18 21 25
34 30 23 20 23 22 18 15 11 10 7 6 5 7 11 10 15 25 27 33 28 29 34 32 28 27 24 23 21 23 22 23
31 29 23 21 24 22 20 15 13 12 11 9 4 5 5 6 9 14 15 25 25 26 31 29 28 27 27 28 27 27 27 25

GFSFLT2_500_spd_084.txt.gz
Wind_Speed
22 20 22 24 26 29 30 31 34 36 38 34 33 32 31 33 32 30 31 35 32 27 29 28 26 26 30 31 31 30 30 26
24 21 23 25 29 31 30 32 37 36 36 34 33 32 31 28 22 27 27 25 37 30 28 26 28 29 32 31 30 28 28 26
27 23 24 26 31 33 32 34 37 35 33 32 32 30 29 27 23 27 28 29 31 27 27 22 24 28 29 28 32 32 30 29
30 26 24 29 31 33 34 34 34 31 31 29 28 26 25 24 22 25 25 23 33 24 25 19 20 27 29 28 34 37 33 32
30 28 26 31 32 31 33 32 30 30 28 28 26 24 23 23 21 22 23 24 21 28 28 24 22 27 31 32 35 37 33 31
28 30 29 31 31 31 35 30 29 29 27 28 25 22 22 20 20 17 18 21 23 29 20 31 29 29 34 35 37 40 32 31
31 30 31 32 32 31 35 32 31 29 26 28 24 24 24 21 22 19 19 23 25 28 22 27 32 29 32 29 36 39 33 25
32 31 30 32 31 30 30 32 33 28 26 27 24 25 26 24 24 21 17 22 25 27 28 28 32 32 28 30 31 34 29 32
34 31 31 31 30 27 27 30 32 27 27 28 27 27 28 26 25 24 22 21 24 25 26 27 34 35 32 31 29 28 32 33
34 30 26 31 29 27 28 29 30 26 29 28 28 29 27 25 24 22 22 21 25 26 30 31 33 38 33 30 28 30 30 31
35 28 26 31 28 27 27 28 28 25 28 28 28 29 27 27 24 23 25 25 25 26 30 35 40 34 34 29 26 32 28 27
32 29 29 31 27 26 26 27 25 26 25 23 24 25 25 26 27 25 27 26 25 26 29 34 36 38 32 25 22 28 24 23
28 27 30 28 23 27 24 25 22 26 20 19 23 25 26 27 27 27 28 25 26 28 32 31 37 41 34 20 21 22 23 24
24 27 27 25 24 26 24 21 18 20 19 21 23 24 25 27 27 29 31 26 28 32 31 30 35 38 34 24 23 21 22 24
24 26 24 23 26 24 22 16 17 17 19 20 21 23 25 26 27 29 31 29 34 36 32 31 36 40 37 32 28 22 27 25
26 26 24 23 26 23 19 13 16 18 19 18 20 21 18 20 23 29 30 32 37 36 29 28 35 38 38 38 33 29 25 23
27 25 24 24 26 22 18 13 17 18 17 18 19 19 17 21 25 29 30 35 33 32 32 30 32 38 39 34 38 33 24 26
30 27 25 25 26 21 16 14 18 16 16 18 17 16 16 18 21 27 29 32 25 32 32 25 25 31 32 30 26 20 22 23
30 30 27 26 27 20 15 15 18 16 16 15 12 11 11 19 13 21 25 32 29 30 30 29 29 29 34 29 23 22 21 19
32 34 29 28 27 20 14 17 19 16 16 16 14 11 10 16 16 12 15 28 29 30 32 29 25 28 28 26 26 25 21 21

GFSFLT2_500_spd_090.txt.gz
Wind_Speed
36 36 38 37 32 31 31 34 34 31 30 29 29 27 31 32 35 31 26 28 32 28 29 33 44 29 25 26 27 27 27 26
36 38 40 41 35 34 34 34 36 34 32 30 32 31 30 32 31 29 26 32 31 27 23 31 37 33 17 24 26 27 28 25
34 39 40 41 38 37 35 34 36 37 34 33 34 32 30 29 29 29 27 32 26 29 23 24 36 27 18 19 25 25 24 24
29 38 40 42 41 39 36 34 36 39 37 36 35 33 30 27 28 28 29 30 28 29 25 34 32 28 29 20 21 22 20 23
34 38 38 42 41 39 36 35 35 39 39 38 37 33 28 27 27 26 28 25 26 26 23 27 31 28 29 25 21 21 20 23
37 36 41 41 41 40 38 36 36 42 40 40 38 30 27 27 28 26 25 24 25 23 24 21 39 32 31 26 22 27 24 26
36 32 39 43 42 40 39 34 37 41 40 42 37 28 26 28 28 26 22 23 23 21 20 14 22 30 30 28 23 27 28 23
37 37 37 44 40 39 40 36 38 40 40 41 34 28 27 27 27 25 23 24 23 22 19 16 18 28 31 29 24 26 26 26
41 37 35 42 41 38 41 37 37 40 40 38 32 28 26 27 26 27 25 23 25 24 19 19 20 29 26 30 29 28 27 27
39 39 36 38 38 39 41 37 37 39 40 37 32 27 25 25 26 28 29 26 26 25 25 20 22 25 29 29 29 31 29 28
39 40 36 36 35 37 42 35 35 36 38 34 32 27 25 25 27 28 27 25 25 26 26 23 22 24 26 29 34 30 27 25
40 42 37 36 37 42 38 31 32 36 35 32 31 26 25 25 25 26 25 25 26 25 25 26 24 25 27 31 37 35 33 30
44 43 37 35 33 37 32 30 34 36 32 31 28 25 25 23 20 21 23 25 26 24 25 22 25 25 28 33 46 38 37 36
40 33 36 30 35 38 32 34 34 34 29 27 26 27 25 21 21 21 25 27 28 27 25 26 26 25 30 37 42 39 40 36
42 35 33 30 36 39 35 37 34 29 24 26 27 27 24 22 21 22 26 28 27 29 27 28 27 27 30 39 42 36 38 35
33 34 32 32 35 35 34 34 29 27 26 26 28 25 23 21 20 21 20 21 27 30 30 29 30 27 25 44 39 32 31 35
31 33 32 33 35 35 35 32 29 28 24 25 27 24 21 19 21 20 19 21 23 29 30 29 31 26 27 33 31 38 36 36
35 31 24 34 36 38 36 32 31 27 24 25 26 22 18 19 19 18 19 21 25 30 33 30 30 27 30 30 34 31 34 36
33 31 30 36 35 36 34 33 31 26 23 26 24 20 17 16 16 17 16 18 23 28 30 29 30 31 29 30 31 34 31 33
34 35 36 34 34 34 34 34 30 26 24 25 22 18 18 18 16 14 18 20 25 25 26 29 32 34 31 32 29 34 32 31

GFSFLT2_500_spd_093.txt.gz
Wind_Speed
37 37 38 40 37 35 36 35 33 34 36 35 33 33 32 33 34 36 34 32 28 27 27 30 29 25 30 39 31 22 21 23
38 38 40 40 39 37 37 37 36 35 36 37 37 36 33 34 35 34 36 31 26 28 27 26 31 26 27 36 25 20 21 22
41 34 37 38 39 38 39 41 39 37 37 38 39 37 34 35 35 34 33 29 27 29 29 27 28 25 24 27 23 18 18 19
48 36 33 35 38 39 40 42 41 37 38 39 42 38 34 37 35 33 30 29 28 29 28 29 25 28 24 31 24 15 17 19
51 48 37 34 39 39 40 41 42 38 38 38 42 38 35 36 36 32 28 29 29 28 28 28 24 27 26 33 28 17 18 19
51 51 41 40 40 40 39 42 41 37 37 38 42 39 38 36 36 31 26 27 29 28 28 25 25 28 29 33 30 22 20 21
53 53 49 38 37 45 43 42 40 38 34 38 41 38 39 36 35 29 24 26 29 26 26 25 23 22 29 32 29 23 24 25
57 55 52 40 41 48 48 44 43 37 33 38 39 39 39 36 33 26 25 26 28 26 25 24 23 19 26 31 32 26 26 27
59 56 58 44 43 46 48 44 41 36 34 37 38 39 39 35 31 25 27 27 28 27 25 24 21 22 15 32 30 27 25 28
64 59 54 42 40 44 45 43 41 38 35 36 36 38 37 33 29 25 27 27 28 28 26 24 23 22 20 22 30 30 25 27
66 63 54 46 41 42 43 45 43 38 35 34 35 36 35 31 29 27 28 29 29 31 29 27 26 26 24 30 27 26 30 29
70 65 52 42 44 43 46 50 39 37 36 32 34 34 31 29 28 28 29 31 30 31 29 27 28 29 27 29 32 34 29 31
66 63 54 47 46 42 46 46 32 32 31 33 35 31 31 28 27 30 28 30 30 31 30 28 29 31 28 28 28 30 36 35
53 46 50 45 44 39 43 39 37 41 36 37 35 33 31 26 29 28 28 27 28 29 29 28 29 31 31 29 29 28 35 37
49 43 43 46 41 40 44 41 38 39 35 36 29 32 29 27 29 27 28 27 27 27 28 28 31 34 32 31 30 31 29 36
44 42 40 41 37 43 46 37 34 40 30 28 32 28 29 29 27 27 26 25 23 24 28 28 33 34 32 33 31 35 39 40
41 44 36 34 37 45 40 41 39 39 33 32 29 28 30 28 26 25 23 23 22 22 22 29 34 35 34 34 31 34 36 41
37 42 41 40 39 39 40 40 35 37 30 28 26 30 31 26 25 24 22 23 22 21 23 29 34 34 35 35 30 29 32 34
38 34 34 36 38 41 40 36 38 34 30 28 29 31 29 25 23 22 21 21 19 22 23 25 31 35 35 35 24 25 31 34
38 35 32 36 40 38 39 38 37 33 30 30 30 31 26 24 22 21 20 17 22 24 25 27 28 32 33 34 35 29 30 35

GFSFLT2_500_spd_096.txt.gz
Wind_Speed
41 39 38 37 37 38 37 36 36 34 34 34 35 35 33 30 30 30 31 33 35 36 33 26 23 24 23 22 26 26 27 17
44 42 39 38 39 40 40 37 35 36 34 34 37 36 36 34 32 31 31 32 36 35 30 24 24 23 26 23 29 28 26 14
48 46 40 37 36 38 39 38 35 36 37 36 38 37 37 38 34 34 32 33 37 35 29 26 26 25 26 27 26 23 23 15
52 52 49 40 34 34 36 39 37 38 39 36 39 39 36 39 37 34 32 34 38 36 31 26 26 26 25 28 27 22 24 16
50 49 47 48 34 33 36 33 39 39 40 36 39 41 36 38 39 36 31 35 38 36 30 28 26 28 25 27 27 27 23 18
50 51 50 50 44 36 34 38 39 39 35 35 35 40 37 37 39 37 31 36 37 34 31 28 26 24 27 26 25 22 26 21
52 51 50 50 49 45 37 39 44 41 38 35 36 38 38 37 38 36 31 35 36 33 28 27 25 24 26 26 27 27 31 27
55 54 54 55 54 51 45 44 47 46 46 40 39 37 38 38 37 34 32 35 35 31 27 26 25 25 26 29 27 29 33 30
59 60 60 61 60 58 47 46 49 49 46 40 40 38 39 38 37 33 32 33 32 29 26 25 26 25 25 26 22 35 33 31
63 61 62 64 65 61 52 47 51 49 42 40 39 38 40 37 36 32 31 31 30 28 26 26 27 26 27 20 21 31 33 33
69 69 62 63 67 66 53 48 46 49 41 41 40 38 39 38 34 30 30 30 29 28 27 28 28 26 27 21 29 31 31 29
70 74 69 64 68 67 58 53 45 46 42 38 40 39 38 37 33 29 28 29 29 29 29 29 29 28 29 25 24 24 33 32
64 64 63 64 69 68 60 48 45 43 41 36 40 40 36 36 31 28 27 27 28 31 31 31 30 29 30 26 27 27 28 29
55 56 59 61 62 66 66 51 49 42 45 44 41 40 37 36 29 27 27 28 30 32 30 30 30 32 29 27 31 30 32 33
54 55 58 54 57 52 57 51 47 47 49 48 44 44 43 36 29 27 29 31 30 31 28 29 29 32 30 30 31 32 30 32
55 57 55 47 49 48 47 40 46 40 47 44 50 47 39 28 27 27 29 29 30 29 29 30 30 30 30 32 32 31 33 33
47 48 44 45 46 46 42 45 44 42 45 43 36 40 39 26 24 28 27 28 28 28 28 27 28 30 29 33 35 34 33 32
43 42 41 45 42 39 41 43 42 41 45 41 37 31 29 24 29 27 26 26 27 28 27 26 25 26 29 33 36 37 33 34
37 38 35 31 41 43 42 38 39 42 41 30 35 28 28 29 31 25 25 26 27 27 25 25 24 24 30 33 37 38 35 34
35 37 38 29 39 40 35 33 40 46 41 37 37 34 30 33 29 25 25 25 24 22 23 25 26 29 28 33 40 39 33 30

GFSFLT2_500_spd_099.txt.gz
Wind_Speed
38 37 37 38 38 39 38 36 34 32 30 32 33 34 35 31 30 29 29 28 29 29 29 29 28 24 21 22 18 18 22 26
39 40 39 40 40 40 39 38 36 35 32 32 34 33 36 35 31 32 32 30 30 30 31 30 29 26 22 21 20 23 26 23
41 42 43 43 40 38 35 36 35 32 32 31 33 34 36 39 32 33 35 32 30 30 32 29 30 28 23 23 23 28 26 21
44 44 45 44 43 36 33 33 30 31 31 32 32 35 36 39 35 33 34 35 31 32 33 29 31 30 24 26 26 30 25 24
46 45 46 46 45 39 34 32 28 31 30 35 34 34 37 39 36 33 34 37 33 32 33 30 30 28 27 25 27 26 25 23
48 48 47 49 48 45 40 36 33 34 33 34 37 34 36 39 36 34 34 36 34 33 33 29 28 28 24 25 25 25 25 23
52 51 50 52 48 45 46 45 39 36 39 39 36 37 36 41 40 35 33 36 34 32 30 29 29 27 24 25 27 26 25 24
54 54 52 53 50 50 49 52 49 40 40 44 44 38 39 40 42 40 34 36 33 32 28 27 29 26 25 26 26 28 24 28
56 57 55 54 56 54 54 56 54 48 46 47 50 44 40 43 45 45 35 36 33 32 26 26 28 27 27 28 27 27 27 26
52 53 55 57 58 60 60 58 57 54 50 47 51 49 41 46 44 45 39 35 32 30 26 26 27 28 28 28 28 29 24 30
52 54 54 55 60 63 62 65 62 58 50 50 50 51 44 43 43 42 41 35 32 30 25 26 27 29 31 28 28 26 31 32
53 57 58 63 68 68 67 65 65 62 50 49 47 48 44 41 43 41 43 35 31 26 24 25 28 30 31 29 29 25 26 30
56 57 62 67 70 74 74 68 68 59 52 51 47 49 42 41 42 42 43 36 30 26 24 27 30 31 33 28 29 26 25 23
55 56 57 63 68 67 68 67 68 66 59 49 48 47 38 39 41 42 41 37 29 25 25 29 30 32 32 28 31 27 24 25
55 52 50 49 49 54 59 63 66 64 62 53 48 46 42 45 43 42 40 36 27 26 27 31 31 31 28 29 31 27 25 29
49 48 48 49 47 47 52 56 55 52 46 41 39 45 48 46 48 45 42 34 26 28 31 32 30 29 28 28 30 28 26 31
44 43 44 44 46 45 51 47 41 43 38 34 38 46 47 49 56 50 39 29 27 31 32 31 29 29 29 29 31 30 30 32
32 37 41 39 39 37 43 39 39 45 40 39 43 42 45 48 37 50 27 24 28 31 29 28 27 29 28 26 30 31 31 34
23 28 32 31 31 34 36 35 37 37 36 36 36 41 37 31 32 29 22 24 26 28 28 26 28 27 26 27 29 29 33 34
25 24 27 31 32 36 38 36 39 34 34 36 41 43 38 33 30 23 23 25 24 28 27 27 28 24 26 28 28 30 35 37

GFSFLT2_500_spd_102.txt.gz
Wind_Speed
34 34 34 34 33 33 34 34 32 33 33 32 31 32 31 31 29 28 27 27 27 27 26 26 25 25 23 22 21 20 20 21
38 37 36 35 36 36 36 35 33 33 33 35 34 32 33 33 32 28 28 28 30 29 27 26 26 27 22 22 23 21 21 24
39 40 40 38 38 38 39 37 34 33 29 30 32 29 31 32 34 33 29 28 30 32 31 27 28 28 24 24 26 23 23 25
41 42 43 42 42 42 42 37 35 31 28 29 30 31 30 32 34 36 34 29 32 33 33 28 28 28 26 24 25 26 24 25
43 44 44 44 44 45 43 39 34 33 30 32 31 33 33 34 32 33 34 31 32 34 35 31 29 29 26 25 25 26 26 27
45 47 47 46 46 46 45 42 38 38 35 34 34 33 34 36 36 33 35 32 32 34 36 32 30 29 27 26 27 28 27 24
48 49 50 50 49 49 48 45 43 43 38 37 36 36 34 36 36 39 36 37 32 35 36 34 31 29 28 27 28 27 27 23
49 51 52 53 52 51 49 49 45 39 39 38 39 39 39 38 38 39 41 40 35 35 37 36 31 29 27 27 27 28 26 24
49 51 53 54 53 54 52 50 50 54 51 46 42 42 43 44 42 41 45 46 41 38 38 38 33 28 27 26 28 30 27 26
50 50 52 53 53 54 54 54 54 54 55 53 51 46 45 48 46 45 45 48 46 41 38 40 33 28 28 27 29 30 29 28
44 47 48 48 50 52 54 56 57 59 59 58 55 54 47 50 50 49 47 47 48 42 38 39 33 28 27 28 30 31 30 30
44 46 47 50 51 52 53 56 58 63 65 62 55 48 48 48 49 49 48 47 47 43 37 38 31 29 27 29 30 32 30 30
44 46 49 50 52 55 59 62 64 68 67 67 62 59 55 52 49 48 47 48 47 45 36 35 31 30 29 29 30 31 32 29
45 49 50 53 55 58 61 62 66 69 69 68 63 59 53 53 50 47 45 48 44 45 39 33 32 31 30 30 31 30 30 28
46 52 57 58 61 61 61 59 60 62 68 63 58 55 54 51 48 46 45 48 45 45 41 34 31 32 30 31 30 26 29 28
51 55 57 60 60 55 48 47 45 46 55 51 51 54 55 55 54 47 45 49 47 47 42 35 33 32 31 30 30 25 28 28
52 51 54 49 48 49 47 45 43 47 47 48 49 48 51 49 50 59 42 52 47 45 46 38 34 34 30 30 31 27 28 28
51 46 40 44 46 47 46 43 41 43 40 39 42 45 43 39 43 44 42 48 53 48 49 40 37 32 31 30 30 27 28 28
42 38 42 38 34 32 36 36 37 36 36 38 40 39 43 41 38 39 39 42 42 51 49 38 34 30 30 30 29 28 28 29
36 35 34 36 29 30 29 32 33 35 37 37 36 40 43 41 42 36 35 42 48 43 40 33 30 30 29 28 28 26 25 26

GFSFLT2_500_spd_105.txt.gz
Wind_Speed
32 33 34 34 34 34 33 33 32 31 30 29 29 30 30 30 31 28 27 24 24 25 25 24 25 23 23 24 23 22 20 21
31 33 34 34 34 35 35 35 35 33 32 30 31 32 33 34 35 31 30 26 24 26 26 25 26 26 24 25 24 23 22 23
36 36 35 36 36 37 37 37 37 36 33 30 31 35 35 34 35 34 32 28 26 24 27 27 29 26 25 25 24 25 23 24
38 38 38 39 39 39 39 40 40 37 34 32 33 34 36 35 36 35 35 31 29 27 26 26 29 28 27 27 24 26 24 24
41 41 42 42 42 41 42 43 42 39 36 34 33 34 34 37 36 36 36 32 30 30 26 25 28 29 27 26 24 25 27 27
42 42 43 44 44 43 43 43 44 41 37 39 37 36 36 36 35 36 37 36 33 31 30 26 27 29 29 28 25 26 29 27
43 43 44 45 46 46 45 45 44 44 41 41 41 39 39 40 40 39 40 40 34 34 32 31 28 29 29 29 27 28 28 26
46 47 47 48 48 48 47 47 46 46 44 40 41 44 42 40 41 41 43 41 39 35 35 33 33 30 30 30 31 30 29 28
46 48 49 49 49 49 50 49 49 49 48 44 42 38 39 41 41 44 45 46 41 41 39 37 35 36 31 32 31 32 30 30
44 46 47 48 49 50 51 51 50 51 52 49 47 45 47 47 46 43 47 50 44 44 43 45 40 38 36 32 32 33 32 32
43 44 46 47 47 47 48 49 50 51 51 52 49 50 51 51 48 47 49 51 49 49 45 46 47 40 38 35 31 34 34 33
42 43 44 45 43 43 44 46 49 50 52 51 51 53 54 54 52 47 49 48 50 49 49 48 49 44 40 36 32 34 36 32
37 37 40 42 44 45 45 45 47 50 51 54 55 58 59 59 57 49 48 44 46 50 53 51 51 47 43 37 35 36 36 33
38 39 41 45 45 45 46 48 51 54 56 59 62 64 66 66 59 51 52 50 51 48 51 51 51 48 45 39 36 36 35 32
40 41 43 46 49 48 50 54 57 61 63 64 68 67 66 60 68 52 53 50 44 46 50 53 52 48 44 40 37 37 36 33
41 43 46 48 49 52 53 57 60 64 67 69 62 60 62 62 58 60 54 52 48 47 50 51 51 48 44 39 38 38 36 31
42 44 47 51 49 52 57 60 61 55 53 55 52 53 54 52 51 56 55 54 56 54 57 51 51 46 43 39 40 39 36 31
43 45 47 49 48 51 55 53 47 48 51 51 48 48 46 45 50 55 54 62 57 57 60 56 52 46 44 40 41 42 36 32
43 44 45 46 46 47 49 44 45 47 48 48 49 45 43 41 46 51 59 59 53 44 54 51 45 46 43 42 43 39 38 32
42 41 42 45 43 46 42 44 43 41 39 41 43 41 42 38 42 46 50 53 41 45 44 39 45 40 45 45 43 39 38 33

GFSFLT2_500_spd_108.txt.gz
Wind_Speed
28 29 30 31 32 33 33 33 32 33 31 30 28 26 26 29 28 27 28 26 25 26 24 24 24 23 21 19 20 20 21 18
34 32 32 32 33 34 34 34 35 34 32 31 30 29 29 30 32 30 30 29 26 27 25 23 24 24 23 22 21 20 20 18
37 37 35 34 35 35 36 36 37 35 34 33 30 31 33 33 34 33 33 31 29 26 26 26 23 23 23 24 23 22 21 20
39 39 37 37 37 37 38 38 38 38 37 34 32 32 35 36 35 35 35 33 32 30 26 25 26 25 24 23 23 23 22 22
40 41 41 41 40 40 40 40 40 40 39 36 34 33 34 35 34 35 36 35 35 33 29 26 25 25 25 23 22 22 23 24
39 41 42 43 44 42 41 41 42 41 41 39 36 34 35 34 36 34 37 37 36 35 35 32 27 26 25 25 22 22 24 25
43 41 41 43 44 42 42 42 43 42 44 41 39 37 37 38 37 39 37 40 38 39 36 36 33 29 25 27 25 23 24 25
45 45 45 46 45 47 45 44 44 43 44 43 40 39 38 37 40 40 43 39 39 39 40 38 37 32 29 28 27 27 26 27
43 47 47 46 46 48 48 46 46 44 45 46 43 42 39 37 39 40 40 38 38 40 41 42 42 38 34 33 30 29 30 29
43 42 44 45 45 46 47 47 47 47 46 45 45 44 44 41 42 41 44 44 41 39 41 43 44 42 41 38 36 32 31 31
42 41 40 41 44 45 46 46 47 46 46 47 48 44 46 44 43 41 45 48 45 43 44 45 47 45 46 43 41 37 34 34
40 41 40 40 43 44 45 46 46 45 45 45 46 46 46 48 47 45 46 46 47 47 44 46 48 49 48 47 49 43 38 35
39 39 40 41 42 42 43 42 42 42 43 45 47 48 47 49 48 49 46 52 54 48 47 47 49 50 51 49 50 45 44 38
41 40 41 40 41 41 40 40 40 41 44 45 48 50 49 50 51 53 55 64 64 53 50 45 48 49 48 49 52 44 42 39
42 41 40 41 41 41 40 41 40 44 47 50 51 53 56 57 59 60 58 69 63 50 55 51 50 54 53 50 53 45 41 40
42 41 41 41 41 42 42 43 44 48 51 53 55 57 59 63 65 68 66 66 67 64 48 47 43 44 48 47 54 43 38 40
43 44 42 40 40 41 42 43 43 46 50 54 60 64 66 70 69 72 72 69 71 69 67 55 54 47 48 49 51 43 37 40
43 42 40 40 41 42 43 41 44 47 53 60 61 59 58 60 54 57 64 64 67 65 69 68 50 49 47 57 46 47 40 42
41 42 41 41 41 41 40 40 46 52 56 55 54 50 54 55 60 45 46 46 49 52 54 51 49 47 51 55 48 56 47 41
42 43 39 37 38 40 41 44 50 53 51 46 48 49 51 45 29 34 40 42 43 51 53 50 53 49 51 55 57 59 48 40

GFSFLT2_500_spd_111.txt.gz
Wind_Speed
30 30 30 30 31 31 32 31 32 32 32 30 28 27 27 26 27 25 23 25 22 23 23 21 20 19 18 19 20 21 22 23
32 32 33 32 33 34 34 33 33 33 33 32 30 29 29 28 29 29 25 26 26 24 23 21 20 19 19 21 20 20 22 22
37 35 35 36 35 35 35 35 35 34 35 34 33 32 31 29 29 31 30 27 27 25 24 23 22 21 19 21 23 22 21 22
38 38 37 38 36 36 37 37 37 37 37 36 35 34 33 32 30 30 31 31 31 29 26 24 23 22 22 20 22 23 23 21
38 41 42 39 40 37 37 39 38 39 39 38 37 35 34 33 31 31 33 33 33 33 30 26 25 24 23 22 22 22 22 24
42 39 43 43 42 39 39 40 40 41 40 40 38 36 35 35 34 33 33 35 35 36 36 33 30 27 24 24 25 25 24 24
47 43 40 43 42 41 39 40 41 41 40 40 39 39 35 36 34 34 35 36 37 38 39 37 34 32 28 23 26 27 27 27
50 45 42 44 45 45 44 44 43 43 42 42 41 42 39 39 36 36 37 37 37 40 40 40 38 35 33 29 28 27 28 28
48 47 47 46 47 46 46 47 45 43 42 41 42 43 44 38 39 39 37 38 38 40 42 42 41 40 37 33 32 31 31 29
43 43 44 45 46 45 45 46 46 44 43 42 41 43 44 45 43 41 40 40 40 41 42 42 41 43 41 36 35 34 34 33
45 43 42 45 47 46 44 44 45 44 44 42 43 43 45 48 44 41 42 42 43 43 45 46 46 44 44 43 40 38 37 38
50 50 46 44 44 44 43 43 43 44 44 44 44 44 44 44 46 44 42 42 43 44 46 50 49 46 47 46 44 43 38 39
48 49 47 44 42 42 42 42 43 43 43 43 44 43 43 40 40 44 47 46 46 47 49 54 53 47 47 45 45 44 39 42
48 47 47 46 43 41 40 41 41 41 41 40 40 41 42 42 43 45 47 48 49 51 53 59 59 55 52 47 45 43 43 46
46 47 47 46 44 42 41 40 40 40 40 39 38 40 43 45 47 50 49 53 55 57 60 67 82 75 58 52 45 43 44 48
43 45 46 45 43 42 41 41 41 42 40 40 40 43 46 49 51 54 58 57 62 62 64 62 70 56 60 54 47 51 50 49
42 44 45 44 43 42 42 42 42 41 41 42 44 47 49 50 51 55 61 64 65 66 71 72 66 61 66 47 49 51 47 52
43 43 43 42 42 41 42 43 43 42 42 42 42 45 48 52 57 62 65 66 64 63 73 72 72 71 71 61 54 49 46 48
42 40 41 40 39 40 41 44 41 40 42 43 43 47 53 57 59 63 57 55 56 65 70 62 65 68 68 52 48 51 53 59
42 42 41 41 42 43 40 41 40 40 41 41 44 51 54 56 54 52 53 57 58 70 62 46 52 56 60 53 52 56 59 55

GFSFLT2_500_spd_114.txt.gz
Wind_Speed
30 30 33 32 32 31 31 32 32 32 32 31 29 28 28 27 26 24 24 23 22 20 19 19 20 19 21 21 22 23 23 24
31 32 33 33 33 35 35 34 33 33 33 32 31 29 29 30 29 27 27 26 24 24 22 20 20 20 21 20 22 23 23 22
33 35 33 33 33 34 35 36 35 34 34 34 33 32 31 32 32 30 29 28 27 25 24 22 21 22 20 21 21 23 24 22
40 37 36 35 36 35 36 36 36 36 36 36 35 35 34 33 33 31 31 31 29 28 27 24 23 22 21 23 23 22 23 23
40 42 39 37 37 37 37 38 38 39 40 39 38 37 36 34 34 32 32 33 33 32 30 30 26 23 23 24 25 25 23 24
42 41 40 39 37 39 38 39 41 40 41 42 41 40 39 36 35 33 33 34 35 34 33 32 33 30 26 26 26 27 27 26
46 40 39 36 41 39 41 40 40 41 41 43 44 42 41 39 36 34 35 35 36 36 36 36 35 36 32 29 28 29 29 29
45 43 40 40 42 45 43 43 43 44 44 43 43 43 42 41 41 40 39 37 37 38 37 38 38 38 37 33 32 34 31 29
43 43 44 41 44 46 46 46 46 45 44 46 46 46 45 44 44 44 43 39 40 39 38 39 42 41 40 39 36 35 35 34
49 48 48 47 45 46 46 45 45 46 45 45 46 46 43 45 43 48 46 37 40 40 41 41 44 44 42 42 40 38 38 38
56 51 50 51 48 44 43 43 45 46 46 45 44 43 43 43 42 43 48 39 40 41 42 44 47 48 47 46 46 44 43 40
60 53 52 52 50 48 46 44 45 45 46 46 45 45 44 43 42 42 42 45 49 48 44 44 46 49 51 51 52 51 46 43
61 54 54 52 52 52 52 50 46 45 46 46 46 45 45 44 43 42 42 46 43 47 50 48 51 53 55 57 55 52 50 47
60 55 55 54 51 51 51 50 47 45 45 45 45 45 44 44 43 42 42 42 44 45 44 48 49 52 57 60 64 58 51 50
50 49 55 56 54 51 50 49 47 46 44 44 45 43 43 43 43 42 42 44 46 48 49 52 54 56 57 59 74 67 53 52
52 48 59 55 53 49 49 48 46 45 44 44 43 42 42 43 44 44 45 47 48 51 53 57 60 59 61 61 47 54 41 50
50 52 43 49 52 47 46 47 45 44 44 43 43 43 43 45 46 47 49 50 51 53 56 60 63 62 60 64 62 65 60 51
40 43 45 49 50 45 46 45 44 44 43 44 45 44 45 48 49 50 52 52 53 54 57 63 67 72 71 71 71 74 65 57
45 42 40 46 40 41 46 45 43 43 44 45 44 45 48 50 51 51 51 54 58 62 63 66 68 71 71 68 70 72 71 66
43 47 50 49 46 43 40 40 41 42 44 46 47 49 48 48 49 49 55 60 64 61 58 58 59 60 61 59 67 68 70 69

GFSFLT2_500_spd_117.txt.gz
Wind_Speed
30 31 31 32 30 29 30 31 32 32 31 31 30 28 26 25 26 25 24 23 24 24 23 23 22 21 22 20 19 19 21 22
33 32 34 34 34 33 31 31 32 33 33 34 33 32 30 28 29 28 27 25 25 25 25 26 25 24 23 22 21 20 20 21
37 37 34 36 35 34 33 32 31 31 32 34 35 34 34 32 32 32 30 27 26 26 27 27 27 25 24 23 22 21 21 22
36 38 36 36 38 37 36 35 34 33 32 33 35 36 36 35 34 34 32 30 28 27 28 28 27 27 24 24 24 23 24 23
35 36 36 37 36 37 37 37 36 35 35 35 36 37 37 37 37 36 35 34 30 29 29 29 30 29 27 25 25 26 26 25
36 39 36 35 37 38 39 38 38 37 37 38 38 38 39 39 38 38 39 37 34 32 30 31 31 32 32 31 28 28 28 28
40 40 40 38 35 37 41 42 44 39 39 39 39 39 40 40 40 41 41 39 37 36 34 35 34 34 35 35 34 32 29 28
46 44 43 44 42 38 41 40 42 43 42 41 41 41 42 42 41 43 43 42 42 39 39 39 37 36 36 37 37 36 35 32
56 54 48 48 46 44 43 48 49 48 48 46 46 45 44 44 45 45 46 51 48 48 45 45 41 39 38 40 40 40 41 39
60 57 57 53 51 49 50 52 51 52 52 50 50 47 46 47 48 48 49 48 55 56 54 44 43 42 41 42 42 45 45 45
61 62 61 60 56 52 52 53 53 52 52 51 50 49 46 45 45 45 43 48 53 58 35 40 49 43 44 45 46 47 48 50
70 66 65 65 61 58 54 54 53 53 52 51 51 50 48 45 45 43 43 44 48 40 46 44 45 42 39 50 47 47 51 52
70 68 64 65 64 59 58 55 53 54 53 52 52 50 50 48 46 44 44 43 42 42 44 41 45 41 47 50 44 54 52 55
51 57 61 62 62 55 54 56 55 54 54 53 55 53 51 50 48 46 44 44 43 43 44 44 45 46 47 48 50 55 53 51
51 55 53 48 48 51 57 57 56 56 54 53 53 53 52 50 49 47 45 45 45 45 45 46 48 47 48 51 52 52 56 55
50 50 41 47 48 52 52 54 56 54 54 52 50 50 51 50 49 47 45 45 46 47 48 48 49 50 51 53 55 55 55 56
52 46 42 46 47 51 53 51 55 55 54 50 50 50 50 50 49 48 47 46 47 49 51 52 52 54 55 56 58 59 58 56
51 59 53 46 44 42 42 49 49 56 48 47 47 48 49 50 49 48 47 48 51 52 54 55 55 56 59 61 62 62 63 62
44 43 48 41 41 40 38 40 41 47 47 42 46 46 48 49 49 49 49 51 51 53 56 55 55 55 58 62 66 67 69 71
34 37 40 40 45 42 43 46 47 46 45 46 45 47 47 47 48 48 48 51 53 55 56 55 58 57 60 66 71 73 73 73

GFSFLT2_500_spd_120.txt.gz
Wind_Speed
33 32 30 29 29 29 28 28 28 28 28 28 28 27 27 27 25 26 26 24 23 24 23 22 23 24 23 22 21 19 20 20
31 32 33 32 32 32 32 31 32 32 31 29 28 27 28 29 29 28 28 28 26 26 27 26 25 26 25 25 24 22 20 21
29 32 33 33 32 34 35 34 33 33 33 32 31 29 30 30 30 31 30 29 28 27 28 28 28 27 26 25 24 24 22 22
27 31 32 30 30 31 35 37 37 36 36 36 34 32 33 32 33 33 32 32 30 29 29 30 30 31 29 25 25 23 23 23
31 33 32 31 29 30 31 33 37 39 39 39 38 36 36 36 36 35 35 36 35 33 31 31 32 33 33 31 28 24 23 23
35 32 35 36 37 34 34 35 35 37 41 40 40 40 39 39 38 37 38 39 39 37 35 32 33 34 35 35 32 29 26 24
44 42 41 39 38 42 40 40 39 39 39 42 45 40 40 41 39 40 41 41 41 42 40 36 36 36 37 38 35 33 31 28
52 49 47 46 46 46 45 44 45 44 43 43 43 46 43 43 41 40 41 41 43 45 44 42 41 40 40 42 39 37 37 32
59 59 56 54 52 49 48 48 49 48 48 48 45 45 46 46 46 43 43 45 49 48 49 48 49 46 45 44 43 41 40 37
58 59 59 57 56 55 53 52 52 52 53 53 51 49 50 51 50 49 47 49 51 53 53 51 54 58 54 50 49 44 44 42
63 66 67 66 66 63 60 55 55 55 58 56 55 55 53 52 52 52 52 52 52 56 58 57 46 44 49 55 54 49 44 42
64 67 71 67 64 66 66 63 58 58 60 60 58 55 55 53 50 52 51 48 48 51 53 45 49 58 42 32 31 37 30 35
71 70 68 66 60 58 61 64 59 59 61 63 62 59 57 55 52 50 51 51 51 53 50 51 50 47 38 53 34 40 42 44
63 65 61 55 51 55 55 57 57 57 60 61 63 61 60 57 56 54 53 51 51 52 53 52 49 49 45 42 44 42 39 44
52 47 46 46 50 51 49 47 46 54 55 56 61 61 59 59 58 56 54 54 51 51 51 50 48 49 49 49 49 43 40 39
48 43 44 52 44 52 51 48 44 43 48 54 60 59 57 58 56 56 55 56 53 50 50 49 49 49 48 49 50 49 48 45
38 39 43 49 55 53 46 35 38 40 43 48 52 54 59 57 57 53 54 54 53 49 48 49 50 49 48 47 49 52 53 52
34 33 35 46 38 42 43 35 36 45 38 37 45 46 52 59 56 52 52 52 52 50 49 48 50 51 50 52 52 53 54 56
30 33 30 40 46 43 42 36 37 38 41 41 38 39 44 55 55 54 54 52 52 50 50 50 51 53 52 53 55 56 57 57
38 29 48 36 46 40 38 32 35 31 34 35 34 39 41 55 49 48 52 52 51 51 52 51 54 54 53 56 54 55 57 57

GFSFLT2_500_spd_123.txt.gz
Wind_Speed
31 31 31 30 29 28 27 27 27 26 26 27 27 26 24 24 22 21 21 22 21 20 21 22 21 20 20 20 21 21 21 20
33 34 33 32 32 30 29 29 28 28 28 28 29 28 26 26 26 25 24 24 24 23 23 24 23 23 23 21 22 23 22 21
31 32 33 33 30 31 31 32 33 32 31 30 31 31 30 30 29 29 29 29 26 25 26 26 27 26 26 24 22 22 23 23
26 27 28 30 30 29 31 33 34 35 36 36 35 34 34 33 33 33 32 33 31 30 30 30 29 29 28 28 25 22 24 24
25 24 25 26 29 27 29 33 34 34 35 36 37 38 38 36 36 36 36 36 34 35 35 33 33 33 32 31 29 27 26 25
34 35 35 32 31 33 34 33 34 35 39 39 39 39 40 39 40 40 39 38 38 38 39 38 35 36 35 34 33 31 31 27
41 42 43 44 42 36 38 39 41 41 39 39 42 43 41 42 41 40 38 40 40 41 42 40 39 38 38 37 37 36 36 33
50 50 50 49 47 45 45 44 44 47 46 44 44 44 46 45 46 47 43 43 42 43 43 42 42 42 40 40 40 41 40 41
55 55 54 54 53 50 50 50 52 51 51 51 49 48 48 48 49 48 49 46 45 45 46 45 45 46 45 44 46 46 45 45
56 57 58 58 59 59 55 53 52 53 54 55 53 51 51 51 50 49 51 47 46 48 49 50 50 50 50 48 49 50 49 54
58 60 62 63 64 64 65 63 60 58 58 57 59 60 57 56 55 52 53 50 50 51 53 55 54 55 54 53 51 46 42 39
60 62 63 64 64 67 68 68 65 63 61 64 61 62 63 62 62 58 55 53 51 53 54 53 51 47 58 57 59 49 46 35
66 69 70 71 69 67 69 69 63 63 61 61 64 66 68 65 65 65 61 57 54 53 53 54 53 52 47 60 49 26 46 45
69 70 71 70 70 63 60 62 63 61 61 59 61 65 67 67 64 65 64 61 57 56 55 54 54 54 55 48 48 42 42 40
61 60 60 59 58 55 54 58 57 55 49 54 59 57 63 65 66 63 63 61 59 57 57 56 55 54 56 56 53 49 48 43
55 55 49 46 46 48 49 51 51 51 48 43 44 44 47 55 61 62 61 62 60 59 58 57 57 55 55 55 54 52 50 47
52 47 41 37 38 38 46 49 45 48 50 49 37 37 37 41 48 58 60 61 58 59 59 59 56 56 54 54 54 53 52 49
40 33 31 29 26 32 34 34 43 46 45 28 36 33 31 32 39 47 52 63 60 57 58 56 56 56 54 53 52 52 51 51
42 36 31 32 29 35 25 34 29 42 40 34 31 35 36 37 39 39 42 52 59 62 58 54 55 55 53 52 51 50 50 49
38 29 30 38 37 43 28 20 33 41 49 37 26 28 18 22 30 33 37 42 52 57 58 55 52 52 51 51 51 50 49 50

GFSFLT2_500_spd_126.txt.gz
Wind_Speed
31 33 32 32 32 28 28 27 27 26 24 22 23 24 24 24 23 21 20 21 21 22 21 22 22 21 19 20 20 21 21 21
30 31 33 33 32 29 29 30 31 30 29 27 26 25 25 25 26 26 26 24 24 25 25 24 25 25 23 22 21 22 22 22
28 28 28 28 27 27 27 29 30 33 33 32 32 30 29 29 28 28 30 29 28 27 27 26 28 28 28 26 24 23 22 22
23 23 23 23 23 24 26 27 28 29 32 32 34 35 34 34 33 33 33 33 33 32 31 30 31 30 30 30 27 26 26 25
22 24 25 25 26 26 28 31 32 31 30 31 33 34 35 37 37 37 38 36 36 36 36 35 33 32 32 33 31 28 29 30
31 32 33 33 33 32 33 35 36 37 37 37 36 36 36 38 39 41 41 40 40 40 39 38 39 36 33 34 34 33 33 33
39 41 41 42 42 42 41 39 40 42 43 43 43 41 42 42 43 43 42 42 43 44 45 43 42 41 37 36 35 36 35 36
43 44 46 45 46 46 47 48 48 47 47 49 49 49 48 46 47 47 46 44 45 45 44 45 46 44 42 40 38 37 38 39
50 50 51 52 51 51 51 49 49 50 53 55 54 55 54 52 51 52 51 49 49 50 50 50 50 48 45 44 44 43 44 42
54 53 54 54 54 52 53 54 55 55 55 55 56 58 57 57 56 56 56 55 53 50 52 50 57 51 47 48 49 49 49 47
51 52 53 54 57 58 58 58 58 58 59 58 59 60 61 62 60 57 58 60 59 55 55 53 50 48 46 51 53 52 51 56
52 53 56 57 58 58 58 60 60 61 63 62 63 62 61 64 68 67 64 63 64 64 59 56 55 54 53 52 56 49 53 57
53 55 57 59 59 59 59 59 61 60 60 59 61 63 65 63 66 70 72 68 65 67 66 62 60 59 59 55 60 56 50 47
57 60 60 61 60 60 60 58 59 59 57 58 59 59 61 63 64 67 68 73 70 69 70 67 64 61 62 62 58 55 52 50
57 57 57 56 55 55 56 57 57 56 57 55 59 61 60 61 65 67 69 71 73 69 69 70 66 63 62 64 61 56 51 49
54 52 52 53 54 55 55 55 55 51 52 54 57 56 57 52 50 51 53 62 71 68 67 69 69 64 62 63 62 59 53 49
50 49 51 51 53 50 51 50 50 50 51 53 56 54 57 47 46 45 43 45 53 62 65 65 67 67 64 61 62 60 56 52
47 49 48 47 45 45 47 46 42 45 46 44 47 46 50 49 41 38 38 39 46 51 51 61 66 65 60 62 61 59 55 54
43 37 34 38 44 45 35 36 35 32 38 43 47 53 54 40 36 37 39 41 43 43 48 51 61 61 61 56 59 54 57 53
35 32 33 31 30 33 40 38 41 45 39 35 33 38 41 28 28 23 22 24 27 39 47 52 50 50 57 60 55 59 58 52

GFSFLT2_500_spd_129.txt.gz
Wind_Speed
29 31 31 31 28 25 26 25 25 25 25 25 25 24 23 23 23 22 21 22 22 23 23 23 22 21 22 22 21 21 21 21
30 31 32 32 31 25 23 22 22 24 26 26 28 28 27 28 27 26 25 25 25 25 25 26 25 24 25 25 24 24 22 22
32 32 32 32 30 27 24 22 22 22 23 25 26 28 30 32 32 31 31 31 29 27 28 29 28 25 27 28 26 26 24 23
32 29 31 30 29 27 24 23 24 23 23 24 24 26 28 30 31 33 34 36 36 34 33 33 32 31 30 29 29 29 27 25
26 27 28 28 28 27 27 28 29 30 31 30 28 27 27 29 31 30 34 36 37 39 38 38 37 36 34 32 32 32 31 29
31 31 32 32 32 33 33 34 35 37 37 38 38 36 35 35 35 35 34 34 37 41 42 43 41 39 39 37 34 34 34 33
38 40 41 40 41 41 42 42 42 43 44 42 43 42 42 42 42 40 40 41 40 40 42 44 46 45 45 42 37 36 37 36
44 45 47 48 47 47 48 49 49 48 48 48 47 48 47 47 48 47 46 45 46 47 46 46 47 48 47 46 45 41 37 37
51 50 52 51 51 51 51 52 52 53 52 51 49 51 50 50 51 54 54 52 49 49 50 49 49 50 49 51 49 46 44 42
51 53 54 53 52 53 54 53 52 53 53 51 52 52 53 54 54 55 57 56 56 56 53 54 52 53 51 47 47 48 52 50
48 48 49 49 49 50 51 52 53 55 56 57 56 55 55 56 57 58 58 60 61 61 61 59 59 56 62 42 45 51 49 56
46 48 49 50 52 53 54 56 57 58 58 58 57 57 57 57 58 60 62 63 64 64 64 65 62 60 60 62 60 54 52 53
47 49 51 53 54 56 57 58 59 59 60 58 58 56 54 54 53 56 59 62 65 68 67 66 67 69 68 64 65 62 60 55
51 53 54 56 58 59 60 61 60 59 58 58 57 56 55 54 56 58 59 61 62 65 67 69 68 69 72 70 68 67 67 65
53 55 57 59 60 60 59 55 52 53 53 54 55 55 56 58 59 60 63 65 67 67 67 70 70 70 72 72 72 72 70 68
56 59 61 59 58 54 53 52 53 54 54 54 53 55 57 58 60 60 59 59 63 65 66 71 73 74 73 75 72 72 73 68
56 55 52 49 49 50 51 53 54 53 51 51 53 56 58 59 59 57 58 57 54 50 51 56 62 69 68 73 73 70 70 68
53 50 48 49 50 52 50 49 47 50 50 52 50 52 54 56 58 56 53 54 52 52 52 55 57 57 54 59 66 68 65 65
46 45 46 46 44 41 42 42 45 48 46 49 50 48 47 47 51 52 50 50 49 51 48 48 51 50 53 53 56 63 64 59
43 43 43 42 40 39 40 38 40 39 46 52 49 51 52 51 53 50 50 52 44 43 44 46 44 49 49 49 54 59 62 59

GFSFLT2_500_spd_132.txt.gz
Wind_Speed
28 28 29 30 29 29 26 24 23 21 19 20 20 21 20 21 22 22 23 24 24 24 24 25 24 22 21 20 19 19 18 18
32 28 29 30 31 32 29 26 25 24 22 21 20 21 22 23 24 25 25 26 26 26 26 26 26 25 25 25 23 21 20 20
30 28 30 31 32 33 32 28 27 26 25 23 22 23 24 25 25 26 28 29 30 30 29 29 30 28 28 29 28 27 24 23
28 28 32 31 32 32 31 32 27 25 23 23 24 24 24 25 25 26 26 28 29 31 32 33 31 32 34 35 32 33 30 29
26 28 30 30 31 32 30 30 29 28 30 32 31 29 29 29 28 26 27 28 27 29 31 33 33 34 36 37 39 37 37 35
30 31 32 32 33 34 34 34 35 35 34 36 36 36 36 37 36 36 32 35 35 35 33 32 31 34 36 38 33 37 41 41
37 38 40 40 39 41 42 43 43 44 41 44 41 44 44 43 42 42 41 39 38 39 40 39 39 38 39 37 36 35 36 38
44 44 46 49 48 48 49 48 49 49 51 51 50 49 49 48 47 47 47 46 44 42 42 42 43 41 43 39 40 40 40 40
44 46 47 47 49 53 56 54 60 55 56 57 56 55 54 52 52 50 50 48 48 48 46 46 44 43 42 44 40 44 48 42
41 43 45 48 48 48 48 48 49 49 50 53 55 56 54 51 50 52 52 53 53 53 53 53 51 49 49 59 38 43 60 53
38 40 42 42 43 44 45 47 48 48 49 51 52 53 54 56 58 56 56 57 57 57 56 55 54 55 55 55 59 58 60 46
37 38 40 41 43 45 47 49 50 52 52 53 54 55 56 58 60 61 62 62 62 62 61 61 60 59 59 59 63 62 62 58
40 41 42 44 46 48 50 51 52 54 56 57 58 59 59 60 61 61 61 62 63 65 63 63 65 67 67 64 65 65 65 61
43 44 46 47 49 51 54 56 58 59 60 61 62 62 62 60 59 58 58 58 58 60 63 64 65 65 67 69 68 69 68 65
48 48 48 50 52 56 59 60 60 58 58 57 58 58 58 58 58 59 59 59 60 60 61 63 65 66 67 68 70 71 69 70
49 51 53 57 59 61 61 57 52 49 49 52 54 55 57 58 58 60 59 62 65 63 64 66 66 67 68 71 74 74 73 69
51 55 59 61 63 65 63 58 53 51 51 51 49 47 50 54 55 57 59 64 66 67 65 62 60 57 62 61 64 67 73 76
57 61 64 63 59 55 52 51 52 51 47 46 47 48 49 51 53 53 55 56 60 61 63 61 59 56 52 52 57 59 58 63
60 63 58 54 51 47 48 49 44 44 45 48 51 51 47 50 51 52 50 51 56 57 56 61 55 53 51 55 55 56 57 56
59 53 50 45 45 45 44 41 39 40 43 48 49 45 45 49 53 55 52 48 47 48 52 47 48 46 47 48 50 51 54 57